DW1157 Weather Reports


Display with metric or nautical units.
time (UTC)temp
F
wind
direction
speed
MPH
gust
MPH
rain 1hr
in
rain 24hr
in
rain mn
in
humidity
%
barometer
mb
20260509002420 87 209 0.0 0.0 0.00 0.00 0.04 76 999.8
20260509002322 87 210 0.0 0.0 0.00 0.00 0.04 76 999.8
20260509002233 87 93 0.0 0.0 0.00 0.00 0.04 76 999.8
20260509002141 87 123 0.0 0.0 0.00 0.00 0.04 76 999.8
20260509002033 87 191 0.0 0.0 0.00 0.00 0.04 76 999.8
20260509001926 87 96 0.0 0.0 0.00 0.00 0.04 76 999.8
20260509001827 87 94 0.0 0.0 0.00 0.00 0.04 76 999.8
20260509001749 87 250 0.0 0.0 0.00 0.00 0.04 76 999.8
20260509001621 87 252 0.0 0.0 0.00 0.00 0.04 76 999.7
20260509001546 87 108 0.0 0.0 0.00 0.00 0.04 76 999.7
20260509001458 87 104 0.0 0.0 0.00 0.00 0.04 76 999.7
20260509001337 87 94 0.0 0.0 0.00 0.00 0.04 76 999.7
20260509001233 88 90 0.0 0.0 0.00 0.00 0.04 76 999.7
20260509001127 88 198 0.0 0.0 0.00 0.00 0.04 76 999.7
20260509001035 88 165 0.0 0.0 0.00 0.00 0.04 75 999.7
20260509000948 88 145 0.0 0.0 0.00 0.00 0.04 75 999.7
20260509000848 88 38 0.0 0.0 0.00 0.00 0.04 75 999.7
20260509000729 88 192 0.0 0.0 0.00 0.00 0.04 75 999.7
20260509000642 88 203 0.0 0.0 0.00 0.00 0.04 75 999.7
20260509000421 88 266 0.0 0.0 0.00 0.00 0.04 75 999.7
20260509000343 88 250 0.0 0.0 0.00 0.00 0.04 75 999.7
20260509000255 88 151 0.0 0.0 0.00 0.00 0.04 75 999.7
20260509000139 88 346 0.0 0.0 0.00 0.00 0.04 75 999.8
20260509000030 88 90 0.0 0.0 0.00 0.00 0.04 75 999.8
20260508235931 88 89 0.0 0.0 0.00 0.00 0.04 75 999.8
20260508235823 88 212 0.0 0.0 0.00 0.00 0.04 75 999.8
20260508235744 88 212 0.0 0.0 0.00 0.00 0.04 75 999.8
20260508235635 88 85 0.0 0.0 0.00 0.00 0.04 75 999.8
20260508235432 88 93 0.0 0.0 0.00 0.00 0.04 75 999.8
20260508235332 88 80 0.0 0.0 0.00 0.00 0.04 75 999.8
20260508235227 88 136 0.0 0.0 0.00 0.00 0.04 74 999.8
20260508235148 88 12 0.0 0.0 0.00 0.00 0.04 74 999.8
20260508235020 88 119 0.0 0.0 0.00 0.00 0.04 74 999.8
20260508234935 88 133 0.0 0.0 0.00 0.00 0.04 74 999.8
20260508234843 88 114 0.0 0.0 0.00 0.00 0.04 74 999.8
20260508234805 88 340 0.0 0.0 0.00 0.00 0.04 74 999.8
20260508234654 88 83 0.0 0.0 0.00 0.00 0.04 74 999.9
20260508234541 88 216 0.0 0.0 0.00 0.00 0.04 74 999.9
20260508234432 89 244 0.0 0.0 0.00 0.00 0.04 74 999.9
20260508234322 89 24 0.0 0.0 0.00 0.00 0.04 74 999.9
20260508234246 89 20 0.0 0.0 0.00 0.00 0.04 74 999.9
20260508234206 89 108 0.0 0.0 0.00 0.00 0.04 74 999.9
20260508234021 89 36 0.0 0.0 0.00 0.00 0.04 74 999.9
20260508233932 89 321 0.0 0.0 0.00 0.00 0.04 74 999.9
20260508233835 89 200 0.0 0.0 0.00 0.00 0.04 74 999.9
20260508233729 89 110 0.0 0.0 0.00 0.00 0.04 74 999.9
20260508233650 89 81 0.0 0.0 0.00 0.00 0.04 74 999.9
20260508233519 89 135 0.0 0.0 0.00 0.00 0.04 74 999.9
20260508233443 89 135 0.0 0.0 0.00 0.00 0.04 74 999.9
20260508233334 89 231 0.0 0.0 0.00 0.00 0.04 74 999.9
20260508233233 89 244 0.0 0.0 0.00 0.00 0.04 73 999.9
20260508233133 89 86 0.0 0.0 0.00 0.00 0.04 73 1000.3
20260508233029 89 111 0.0 0.0 0.00 0.00 0.04 74 1000.3
20260508232924 89 156 0.0 0.0 0.00 0.00 0.04 73 1000.3
20260508232824 89 163 0.0 0.0 0.00 0.00 0.04 73 1000.3
20260508232718 89 338 0.0 0.0 0.00 0.00 0.04 73 1000.3
20260508232645 89 276 0.0 0.0 0.00 0.00 0.04 73 1000.3
20260508232521 89 51 0.0 0.0 0.00 0.00 0.04 73 1000.3
20260508232433 89 51 0.0 0.0 0.00 0.00 0.04 73 1000.3
20260508232334 89 66 0.0 0.0 0.00 0.00 0.04 73 1000.3
20260508232225 89 142 0.0 0.0 0.00 0.00 0.04 73 1000.3
20260508232145 89 233 0.0 0.0 0.00 0.00 0.04 73 1000.3
20260508232020 89 146 0.0 0.0 0.00 0.00 0.04 73 1000.3
20260508231935 89 190 0.0 0.0 0.00 0.00 0.04 73 1000.3
20260508231839 89 201 0.0 0.0 0.00 0.00 0.04 73 1000.3
20260508231733 89 211 0.0 0.0 0.00 0.00 0.04 73 1000.3
20260508231624 89 211 0.0 0.0 0.00 0.00 0.04 73 1000.1
20260508231525 89 211 0.0 0.0 0.00 0.00 0.04 73 1000.1
20260508231438 89 211 0.0 0.0 0.00 0.00 0.04 72 1000.1
20260508231339 89 90 0.0 0.0 0.00 0.00 0.04 72 1000.1
20260508231250 89 226 0.0 0.0 0.00 0.00 0.04 73 1000.1
20260508231132 89 91 0.0 0.0 0.00 0.00 0.04 73 1000.1
20260508231029 89 91 0.0 0.0 0.00 0.00 0.04 73 1000.1
20260508230922 89 105 0.0 0.0 0.00 0.00 0.04 73 1000.1
20260508230843 89 93 0.0 0.0 0.00 0.00 0.04 73 1000.1
20260508230743 89 49 0.0 0.0 0.00 0.00 0.04 74 1000.1
20260508230650 89 49 0.0 0.0 0.00 0.00 0.04 74 1000.1
20260508230541 89 49 0.0 0.0 0.00 0.00 0.04 74 1000.1
20260508230432 89 50 0.0 0.0 0.00 0.00 0.04 73 1000.1
20260508230337 89 50 0.0 0.0 0.00 0.00 0.04 73 1000.1
20260508230230 89 17 0.0 0.0 0.00 0.00 0.04 74 1000.1
20260508230125 89 17 0.0 0.0 0.00 0.00 0.04 73 1000.2
20260508230029 89 55 0.0 0.0 0.00 0.00 0.04 73 1000.2
20260508225920 89 28 0.0 0.0 0.00 0.00 0.04 73 1000.2
20260508225846 89 174 0.0 0.0 0.00 0.00 0.04 73 1000.2
20260508225720 89 209 0.0 0.0 0.00 0.00 0.04 73 1000.2
20260508225630 89 209 0.0 0.0 0.00 0.00 0.04 73 1000.2
20260508225535 89 98 0.0 0.0 0.00 0.00 0.04 74 1000.2
20260508225447 89 117 0.0 0.0 0.00 0.00 0.04 74 1000.2
20260508225328 89 191 0.0 0.0 0.00 0.00 0.04 74 1000.2
20260508225220 89 236 0.0 0.0 0.00 0.00 0.04 73 1000.2
20260508225142 89 236 0.0 0.0 0.00 0.00 0.04 73 1000.2
20260508225034 89 101 0.0 0.0 0.00 0.00 0.04 74 1000.2
20260508224925 89 71 0.0 0.0 0.00 0.00 0.04 74 1000.2
20260508224828 89 20 0.0 0.0 0.00 0.00 0.04 74 1000.2
20260508224739 89 47 0.0 0.0 0.00 0.00 0.04 74 1000.2
20260508224640 89 113 0.0 0.0 0.00 0.00 0.04 74 1000.2
20260508224530 89 68 0.0 0.0 0.00 0.00 0.04 74 1000.3
20260508224426 88 219 0.0 0.0 0.00 0.00 0.04 74 1000.3
20260508224329 88 218 0.0 0.0 0.00 0.00 0.04 74 1000.3
20260508224222 88 218 0.0 0.0 0.00 0.00 0.04 75 1000.3
20260508224149 88 69 0.0 0.0 0.00 0.00 0.04 74 1000.3
20260508224024 88 115 0.0 0.0 0.00 0.00 0.04 75 1000.3
20260508223917 88 130 0.0 0.0 0.00 0.00 0.04 75 1000.3
20260508223821 88 19 0.0 0.0 0.00 0.00 0.04 75 1000.3
20260508223735 88 26 0.0 0.0 0.00 0.00 0.04 75 1000.3
20260508223639 88 11 0.0 0.0 0.00 0.00 0.04 74 1000.3
20260508223532 88 11 0.0 0.0 0.00 0.00 0.04 75 1000.3
20260508223425 88 35 0.0 0.0 0.00 0.00 0.04 74 1000.3
20260508223350 88 355 0.0 0.0 0.00 0.00 0.04 74 1000.3
20260508223228 88 43 0.0 0.0 0.00 0.00 0.04 73 1000.3
20260508223131 88 13 0.0 0.0 0.00 0.00 0.04 74 1000.3
20260508223028 88 40 0.0 0.0 0.00 0.00 0.04 74 1000.3
20260508222950 88 42 0.0 0.0 0.00 0.00 0.04 74 1000.3
20260508222820 88 153 0.0 0.0 0.00 0.00 0.04 74 1000.3
20260508222742 88 153 0.0 0.0 0.00 0.00 0.04 74 1000.3
20260508222620 88 211 0.0 0.0 0.00 0.00 0.04 74 1000.3
20260508222533 88 211 0.0 0.0 0.00 0.00 0.04 74 1000.3
20260508222433 88 211 0.0 0.0 0.00 0.00 0.04 74 1000.3
20260508222324 88 99 0.0 0.0 0.00 0.00 0.04 74 1000.3
20260508222227 88 99 0.0 0.0 0.00 0.00 0.04 74 1000.3
20260508222139 88 99 0.0 0.0 0.00 0.00 0.04 74 1000.3
20260508222040 88 99 0.0 0.0 0.00 0.00 0.04 73 1000.3
20260508221931 88 88 0.0 0.0 0.00 0.00 0.04 74 1000.3
20260508221837 88 301 0.0 0.0 0.00 0.00 0.04 73 1000.3
20260508221726 88 240 0.0 0.0 0.00 0.00 0.04 73 1000.3
20260508221623 88 119 0.0 0.0 0.00 0.00 0.04 73 1000.6
20260508221516 88 68 0.0 0.0 0.00 0.00 0.04 74 1000.6
20260508221442 88 74 0.0 0.0 0.00 0.00 0.04 74 1000.6
20260508221406 88 101 0.0 0.0 0.00 0.00 0.04 73 1000.6
20260508221236 88 88 0.0 0.0 0.00 0.00 0.04 73 1000.6
20260508221141 88 84 0.0 0.0 0.00 0.00 0.04 73 1000.6
20260508221038 88 82 0.0 0.0 0.00 0.00 0.04 73 1000.6
20260508221001 88 125 0.0 0.0 0.00 0.00 0.04 73 1000.6
20260508220835 88 325 0.0 0.0 0.00 0.00 0.04 73 1000.6
20260508220727 88 12 0.0 0.0 0.00 0.00 0.04 73 1000.6
20260508220649 88 115 0.0 0.0 0.00 0.00 0.04 74 1000.6
20260508220519 88 344 0.0 0.0 0.00 0.00 0.04 74 1000.6
20260508220421 88 131 0.0 0.0 0.00 0.00 0.04 74 1000.6
20260508220320 88 133 0.0 0.0 0.00 0.00 0.04 73 1000.6
20260508220248 88 206 0.0 0.0 0.00 0.00 0.04 73 1000.6
20260508220139 88 202 0.0 0.0 0.00 0.00 0.04 73 1000.8
20260508220039 88 201 0.0 0.0 0.00 0.00 0.04 73 1000.8
20260508215953 88 134 0.0 0.0 0.00 0.00 0.04 73 1000.8
20260508215837 88 200 0.0 0.0 0.00 0.00 0.04 73 1000.8
20260508215728 88 195 0.0 0.0 0.00 0.00 0.04 74 1000.8
20260508215648 88 244 0.0 0.0 0.00 0.00 0.04 75 1000.8
20260508215522 88 244 0.0 0.0 0.00 0.00 0.04 74 1000.8
20260508215446 87 244 0.0 0.0 0.00 0.00 0.04 74 1000.8
20260508215315 87 244 0.0 0.0 0.00 0.00 0.04 74 1000.8
20260508215242 87 243 0.0 0.0 0.00 0.00 0.04 74 1000.8
20260508215133 87 48 0.0 0.0 0.00 0.00 0.04 74 1000.8
20260508215031 87 47 0.0 0.0 0.00 0.00 0.04 74 1000.8
20260508214953 87 297 0.0 0.0 0.00 0.00 0.04 74 1000.8
20260508214900 87 298 0.0 0.0 0.00 0.00 0.04 73 1000.8
20260508214731 88 298 0.0 0.0 0.00 0.00 0.04 74 1000.8
20260508214627 88 117 0.0 0.0 0.00 0.00 0.04 74 1001.1
20260508214528 88 133 0.0 0.0 0.00 0.00 0.04 74 1001.1
20260508214420 88 185 0.0 0.0 0.00 0.00 0.04 75 1001.1
20260508214321 87 185 0.0 0.0 0.00 0.00 0.04 75 1001.1
20260508214231 87 120 0.0 0.0 0.00 0.00 0.04 74 1001.1
20260508214152 88 211 0.0 0.0 0.00 0.00 0.04 75 1001.1
20260508214050 88 244 0.0 0.0 0.00 0.00 0.04 74 1001.1
20260508213940 88 91 0.0 0.0 0.00 0.00 0.04 74 1001.1
20260508213843 88 91 0.0 0.0 0.00 0.00 0.04 74 1001.1
20260508213802 88 91 0.0 0.0 0.00 0.00 0.04 74 1001.1
20260508213152 88 95 0.0 0.0 0.00 0.00 0.04 74 1001.4
20260508213026 88 225 0.0 0.0 0.00 0.00 0.04 74 1001.4
20260508212947 88 225 0.0 0.0 0.00 0.00 0.04 74 1001.4
20260508212819 88 142 0.0 0.0 0.00 0.00 0.04 74 1001.4
20260508212747 88 200 0.0 0.0 0.00 0.00 0.04 74 1001.4
20260508212659 88 200 0.0 0.0 0.00 0.00 0.04 75 1001.4
20260508212600 88 200 0.0 0.0 0.00 0.00 0.04 75 1001.4
20260508212439 88 202 0.0 0.0 0.00 0.00 0.04 75 1001.4
20260508212350 88 202 0.0 0.0 0.00 0.00 0.04 74 1001.4
20260508212230 88 202 0.0 0.0 0.00 0.00 0.04 74 1001.4
20260508212121 88 203 0.0 0.0 0.00 0.00 0.04 74 1001.4
20260508212052 88 190 0.0 0.0 0.00 0.00 0.04 74 1001.4
20260508211953 88 175 0.0 0.0 0.00 0.00 0.04 75 1001.4
20260508211846 87 175 0.0 0.0 0.00 0.00 0.04 75 1001.4
20260508211725 87 175 0.0 0.0 0.00 0.00 0.04 75 1001.4
20260508211635 87 175 0.0 0.0 0.00 0.00 0.04 74 1001.9
20260508211542 87 165 0.0 0.0 0.00 0.00 0.04 75 1001.9
20260508211454 87 153 0.0 0.0 0.00 0.00 0.04 75 1001.9
20260508211334 87 199 0.0 0.0 0.00 0.00 0.04 75 1001.9
20260508211229 87 180 0.0 0.0 0.00 0.00 0.04 74 1001.9
20260508211124 87 194 0.0 0.0 0.00 0.00 0.04 75 1001.9
20260508211026 87 176 0.0 0.0 0.00 0.00 0.04 75 1001.9
20260508210937 87 168 0.0 0.0 0.00 0.00 0.04 75 1001.9
20260508210843 87 198 0.0 0.0 0.00 0.00 0.04 76 1001.9
20260508210742 87 40 0.0 0.0 0.00 0.00 0.04 76 1001.9
20260508210619 87 40 0.0 0.0 0.00 0.00 0.04 75 1001.9
20260508210536 87 40 0.0 0.0 0.00 0.00 0.04 75 1001.9
20260508210422 87 40 0.0 0.0 0.00 0.00 0.04 75 1001.9
20260508210340 87 40 0.0 0.0 0.00 0.00 0.04 75 1001.9
20260508210241 87 40 0.0 0.0 0.00 0.00 0.04 75 1001.9
20260508210133 87 40 0.0 0.0 0.00 0.00 0.04 75 1002.0
20260508210024 87 40 0.0 0.0 0.00 0.00 0.04 75 1002.0
20260508205924 87 40 0.0 0.0 0.00 0.00 0.04 74 1002.0
20260508205840 87 40 0.0 0.0 0.00 0.00 0.04 75 1002.0
20260508205740 87 232 0.0 0.0 0.00 0.00 0.04 75 1002.0
20260508205635 87 232 0.0 0.0 0.00 0.00 0.04 75 1002.0
20260508205530 87 232 0.0 0.0 0.00 0.00 0.04 74 1002.0
20260508205431 87 232 0.0 0.0 0.00 0.00 0.04 74 1002.0
20260508205326 87 232 0.0 0.0 0.00 0.00 0.04 75 1002.0
20260508205246 87 232 0.0 0.0 0.00 0.00 0.04 74 1002.0
20260508205117 88 232 0.0 0.0 0.00 0.00 0.04 74 1002.0
20260508205044 88 232 0.0 0.0 0.00 0.00 0.04 74 1002.0
20260508204923 88 232 0.0 0.0 0.00 0.00 0.04 74 1002.0
20260508204846 88 227 0.0 0.0 0.00 0.00 0.04 75 1002.0
20260508204738 88 202 0.0 0.0 0.00 0.00 0.04 75 1002.0
20260508204629 88 91 0.0 0.0 0.00 0.00 0.04 75 1002.4
20260508204532 88 91 0.0 0.0 0.00 0.00 0.04 75 1002.4
20260508204423 88 91 0.0 0.0 0.00 0.00 0.04 74 1002.4
20260508204345 88 91 0.0 0.0 0.00 0.00 0.04 74 1002.4
20260508204240 88 98 0.0 0.0 0.00 0.00 0.04 73 1002.4
20260508204204 88 98 0.0 0.0 0.00 0.00 0.04 74 1002.4
20260508204038 88 77 0.0 0.0 0.00 0.00 0.04 73 1002.4
20260508203944 88 77 0.0 0.0 0.00 0.00 0.04 73 1002.4
20260508203836 88 90 0.0 0.0 0.00 0.00 0.04 73 1002.4
20260508203727 88 91 0.0 0.0 0.00 0.00 0.04 74 1002.4
20260508203632 88 91 0.0 0.0 0.00 0.00 0.04 74 1002.4
20260508203523 88 91 1.0 0.0 0.00 0.00 0.04 75 1002.4
20260508203422 88 213 1.0 0.0 0.00 0.00 0.04 77 1002.4
20260508203323 88 213 1.0 0.0 0.00 0.00 0.04 76 1002.4
20260508203234 88 213 1.0 0.0 0.00 0.00 0.04 75 1002.4
20260508203135 88 213 1.0 0.0 0.00 0.00 0.04 75 1002.5
20260508203051 87 213 0.0 0.0 0.00 0.00 0.04 74 1002.5
20260508202950 88 221 0.0 0.0 0.00 0.00 0.04 75 1002.5
20260508202851 88 223 0.0 0.0 0.00 0.00 0.04 75 1002.5
20260508202722 88 223 0.0 0.0 0.00 0.00 0.04 74 1002.5
20260508202625 88 223 0.0 0.0 0.00 0.00 0.04 74 1002.5
20260508202521 88 232 0.0 0.0 0.00 0.00 0.04 74 1002.5
20260508202443 88 215 0.0 0.0 0.00 0.00 0.04 74 1002.5
20260508202335 88 228 0.0 0.0 0.00 0.00 0.04 75 1002.5
20260508202226 88 213 0.0 0.0 0.00 0.00 0.04 76 1002.5
20260508202126 88 131 0.0 0.0 0.00 0.00 0.04 76 1002.5
20260508202022 88 131 0.0 0.0 0.00 0.00 0.04 76 1002.5
20260508201944 88 198 0.0 0.0 0.00 0.00 0.04 76 1002.5
20260508201856 87 82 0.0 0.0 0.00 0.00 0.04 75 1002.5
20260508201756 87 231 0.0 0.0 0.00 0.00 0.04 76 1002.5
20260508201640 87 231 0.0 0.0 0.00 0.00 0.04 76 1002.5
20260508201530 87 231 0.0 0.0 0.00 0.00 0.04 75 1002.6
20260508201455 87 231 0.0 0.0 0.00 0.00 0.04 76 1002.6
20260508201324 87 231 0.0 0.0 0.00 0.00 0.04 76 1002.6
20260508201229 87 231 0.0 0.0 0.00 0.00 0.04 77 1002.6
20260508201140 87 231 0.0 0.0 0.00 0.00 0.04 76 1002.6
20260508201040 87 220 0.0 0.0 0.00 0.00 0.04 77 1002.6
20260508200919 87 220 0.0 0.0 0.00 0.00 0.04 76 1002.6
20260508200833 87 220 0.0 0.0 0.00 0.00 0.04 76 1002.6
20260508200733 87 210 0.0 0.0 0.00 0.00 0.04 77 1002.6
20260508200625 87 210 0.0 0.0 0.00 0.00 0.04 77 1002.6
20260508200527 87 228 0.0 0.0 0.00 0.00 0.04 76 1002.6
20260508200418 87 228 0.0 0.0 0.00 0.00 0.04 76 1002.6
20260508200343 87 228 0.0 0.0 0.00 0.00 0.04 76 1002.6
20260508200235 87 206 0.0 0.0 0.00 0.00 0.04 76 1002.6
20260508200129 87 184 0.0 0.0 0.00 0.00 0.04 76 1002.9
20260508200034 87 90 0.0 0.0 0.00 0.00 0.04 77 1002.9
20260508195927 87 30 0.0 0.0 0.00 0.00 0.04 76 1002.9
20260508195821 87 29 0.0 0.0 0.00 0.00 0.04 77 1002.9
20260508195723 87 29 0.0 0.0 0.00 0.00 0.04 77 1002.9
20260508195635 87 28 0.0 0.0 0.00 0.00 0.04 76 1002.9
20260508195539 87 28 0.0 0.0 0.00 0.00 0.04 76 1002.9
20260508195434 87 28 0.0 0.0 0.00 0.00 0.04 76 1002.9
20260508195329 87 110 0.0 0.0 0.00 0.00 0.04 77 1002.9
20260508195230 86 101 0.0 0.0 0.00 0.00 0.04 78 1002.9
20260508195145 86 109 0.0 0.0 0.00 0.00 0.04 78 1002.9
20260508195110 86 114 0.0 0.0 0.00 0.00 0.04 78 1002.9
20260508195010 86 217 0.0 0.0 0.00 0.00 0.04 77 1002.9
20260508194840 86 217 0.0 0.0 0.00 0.00 0.04 79 1002.9
20260508194742 86 180 0.0 0.0 0.00 0.00 0.04 81 1002.9
20260508194639 85 44 0.0 0.0 0.00 0.00 0.04 81 1002.9
20260508194601 85 44 0.0 0.0 0.00 0.00 0.04 80 1003.0
20260508194432 85 44 0.0 0.0 0.00 0.00 0.04 79 1003.0
20260508194324 85 44 0.0 0.0 0.00 0.00 0.04 79 1003.0
20260508194224 85 134 0.0 0.0 0.00 0.00 0.04 80 1003.0
20260508194122 85 221 0.0 0.0 0.00 0.00 0.04 80 1003.0
20260508194021 85 221 0.0 0.0 0.00 0.00 0.04 79 1003.0
20260508193934 85 221 0.0 0.0 0.00 0.00 0.04 80 1003.0
20260508193842 85 35 0.0 0.0 0.00 0.00 0.04 79 1003.0
20260508193735 84 76 0.0 0.0 0.00 0.00 0.04 80 1003.0
20260508193627 84 242 0.0 0.0 0.00 0.00 0.04 81 1003.0
20260508193547 84 23 0.0 0.0 0.00 0.00 0.04 80 1003.0
20260508193450 84 346 0.0 0.0 0.00 0.00 0.04 80 1003.0
20260508193401 84 18 0.0 0.0 0.00 0.00 0.04 80 1003.0
20260508193241 84 31 0.0 0.0 0.00 0.00 0.04 80 1003.0
20260508193134 84 31 0.0 0.0 0.00 0.00 0.04 79 1003.5
20260508193033 84 30 0.0 0.0 0.00 0.00 0.04 80 1003.5
20260508192934 84 125 0.0 0.0 0.00 0.00 0.04 80 1003.5
20260508192828 84 124 0.0 0.0 0.00 0.00 0.04 80 1003.5
20260508192749 84 128 0.0 0.0 0.00 0.00 0.04 82 1003.5
20260508192640 84 203 0.0 0.0 0.00 0.00 0.04 81 1003.5
20260508192542 84 25 0.0 0.0 0.00 0.00 0.04 80 1003.5
20260508192443 84 110 0.0 0.0 0.00 0.00 0.04 81 1003.5
20260508192336 84 109 0.0 0.0 0.00 0.00 0.04 82 1003.5
20260508192258 84 37 0.0 0.0 0.00 0.00 0.04 81 1003.5
20260508192158 83 37 0.0 0.0 0.00 0.00 0.04 82 1003.5
20260508192050 83 48 0.0 0.0 0.00 0.00 0.04 81 1003.5
20260508191933 83 48 0.0 0.0 0.00 0.00 0.04 82 1003.5
20260508191827 83 131 0.0 0.0 0.00 0.00 0.04 84 1003.5
20260508191749 83 105 0.0 0.0 0.00 0.00 0.04 84 1003.5
20260508191618 82 134 0.0 0.0 0.00 0.00 0.04 84 1003.6
20260508191521 82 41 0.0 0.0 0.00 0.00 0.04 84 1003.6
20260508191415 82 40 0.0 0.0 0.00 0.00 0.04 83 1003.6
20260508191343 82 40 0.0 0.0 0.00 0.00 0.04 83 1003.6
20260508191236 82 57 0.0 0.0 0.00 0.00 0.04 84 1003.6
20260508191140 81 347 0.0 0.0 0.00 0.00 0.04 85 1003.6
20260508191032 81 20 0.0 0.0 0.00 0.00 0.04 85 1003.6
20260508190930 81 32 0.0 0.0 0.00 0.00 0.04 85 1003.6
20260508190850 81 32 0.0 0.0 0.00 0.00 0.04 85 1003.6
20260508190756 81 28 0.0 0.0 0.00 0.00 0.04 85 1003.6
20260508190646 81 61 0.0 0.0 0.00 0.00 0.04 85 1003.6
20260508190550 81 61 0.0 0.0 0.00 0.00 0.04 85 1003.6
20260508190449 81 25 0.0 0.0 0.00 0.00 0.04 86 1003.6
20260508190409 80 26 0.0 0.0 0.00 0.00 0.04 85 1003.6
20260508190223 80 25 0.0 0.0 0.00 0.00 0.04 86 1003.6
20260508190134 80 30 0.0 0.0 0.00 0.00 0.04 86 1004.0
20260508190034 80 33 0.0 0.0 0.00 0.00 0.04 85 1004.0
20260508185926 80 40 0.0 0.0 0.00 0.00 0.04 85 1004.0
20260508185823 80 30 0.0 0.0 0.00 0.00 0.04 86 1004.0
20260508185725 80 94 0.0 0.0 0.00 0.00 0.04 86 1004.0
20260508185620 80 27 0.0 0.0 0.00 0.00 0.04 86 1004.0
20260508185548 80 27 0.0 0.0 0.00 0.00 0.04 86 1004.0
20260508185502 80 27 0.0 0.0 0.00 0.00 0.04 86 1004.0
20260508185320 79 57 0.0 0.0 0.00 0.00 0.04 87 1004.0
20260508185232 79 35 0.0 0.0 0.00 0.00 0.04 87 1004.0
20260508185134 79 37 0.0 0.0 0.00 0.00 0.04 87 1004.0
20260508185026 79 37 0.0 0.0 0.00 0.00 0.04 87 1004.0
20260508184925 79 32 0.0 0.0 0.00 0.00 0.04 87 1004.0
20260508184838 79 24 0.0 0.0 0.00 0.00 0.04 87 1004.0
20260508184738 79 31 0.0 0.0 0.00 0.00 0.04 87 1004.0
20260508184634 79 39 0.0 0.0 0.00 0.00 0.04 88 1004.1
20260508184529 79 23 0.0 0.0 0.00 0.00 0.04 87 1004.1
20260508184451 79 23 0.0 0.0 0.00 0.00 0.04 87 1004.1
20260508184330 79 13 0.0 0.0 0.00 0.00 0.04 87 1004.1
20260508184226 79 13 0.0 0.0 0.00 0.00 0.04 87 1004.1
20260508184118 79 51 0.0 0.0 0.00 0.00 0.04 87 1004.1
20260508184043 79 24 0.0 0.0 0.00 0.00 0.04 87 1004.1
20260508184004 79 121 0.0 0.0 0.00 0.00 0.04 87 1004.1
20260508183840 79 68 0.0 0.0 0.00 0.00 0.04 87 1004.1
20260508183744 79 49 0.0 0.0 0.00 0.00 0.04 87 1004.1
20260508183644 79 38 0.0 0.0 0.00 0.00 0.04 87 1004.1
20260508183537 79 16 0.0 0.0 0.00 0.00 0.04 88 1004.1
20260508183429 79 26 0.0 0.0 0.00 0.00 0.04 88 1004.1
20260508183330 79 26 0.0 0.0 0.00 0.00 0.04 87 1004.1
20260508183221 79 24 0.0 0.0 0.00 0.00 0.04 87 1004.1
20260508183142 79 30 0.0 0.0 0.00 0.00 0.04 87 1004.1
20260508183018 79 30 0.0 0.0 0.00 0.00 0.04 87 1004.4
20260508182932 79 38 0.0 0.0 0.00 0.00 0.04 87 1004.4
20260508182836 79 51 0.0 0.0 0.00 0.00 0.04 87 1004.4
20260508182752 79 26 0.0 0.0 0.00 0.00 0.04 87 1004.4
20260508182631 79 26 0.0 0.0 0.00 0.00 0.04 87 1004.4
20260508182552 79 26 0.0 0.0 0.00 0.00 0.04 87 1004.4
20260508182422 79 37 0.0 0.0 0.00 0.00 0.04 87 1004.4
20260508182346 79 37 0.0 0.0 0.00 0.00 0.04 87 1004.4
20260508182222 79 28 0.0 0.0 0.00 0.00 0.04 87 1004.4
20260508182137 79 28 0.0 0.0 0.00 0.00 0.04 87 1004.4
20260508182038 79 49 0.0 0.0 0.00 0.00 0.04 88 1004.4
20260508181930 79 50 0.0 0.0 0.00 0.00 0.04 87 1004.4
20260508181823 79 29 0.0 0.0 0.00 0.00 0.04 87 1004.4
20260508181744 79 34 0.0 0.0 0.00 0.00 0.04 87 1004.4
20260508181645 79 31 0.0 0.0 0.00 0.00 0.04 87 1004.4
20260508181538 79 31 0.0 0.0 0.00 0.00 0.04 87 1004.5
20260508181444 79 31 0.0 0.0 0.00 0.00 0.04 87 1004.5
20260508181336 79 34 0.0 0.0 0.00 0.00 0.04 87 1004.5
20260508181232 79 25 0.0 0.0 0.00 0.00 0.04 87 1004.5
20260508181123 79 38 0.0 0.0 0.00 0.00 0.04 87 1004.5
20260508181030 79 34 0.0 0.0 0.00 0.00 0.04 87 1004.5
20260508180922 79 27 0.0 0.0 0.00 0.00 0.04 87 1004.5
20260508180816 79 31 0.0 0.0 0.00 0.00 0.04 86 1004.5
20260508180727 79 36 0.0 0.0 0.00 0.00 0.04 86 1004.5
20260508180625 79 51 0.0 0.0 0.00 0.00 0.04 86 1004.5
20260508180520 79 36 0.0 0.0 0.00 0.00 0.04 86 1004.5
20260508180426 79 40 0.0 0.0 0.00 0.00 0.04 86 1004.5
20260508180347 79 40 0.0 0.0 0.00 0.00 0.04 86 1004.5
20260508180240 79 44 0.0 0.0 0.00 0.00 0.04 87 1004.5
20260508180131 79 26 0.0 0.0 0.00 0.00 0.04 87 1004.6
20260508180037 79 26 0.0 0.0 0.00 0.00 0.04 86 1004.6
20260508175929 79 30 0.0 0.0 0.00 0.00 0.04 86 1004.6
20260508175820 79 40 0.0 0.0 0.00 0.00 0.04 86 1004.6
20260508175744 79 43 0.0 0.0 0.00 0.00 0.04 86 1004.6
20260508175707 79 43 0.0 0.0 0.00 0.00 0.04 86 1004.6
20260508175517 79 55 0.0 0.0 0.00 0.00 0.04 86 1004.6
20260508175432 79 33 0.0 0.0 0.00 0.00 0.04 85 1004.6
20260508175338 79 31 0.0 0.0 0.00 0.00 0.04 85 1004.6
20260508175230 79 21 0.0 0.0 0.00 0.00 0.04 85 1004.6
20260508175121 79 38 0.0 0.0 0.00 0.00 0.04 86 1004.6
20260508175021 79 53 0.0 0.0 0.00 0.00 0.04 86 1004.6
20260508174935 79 46 0.0 0.0 0.00 0.00 0.04 86 1004.6
20260508174836 79 42 0.0 0.0 0.00 0.00 0.04 85 1004.6
20260508174730 79 46 0.0 0.0 0.00 0.00 0.04 86 1004.6
20260508174651 79 30 0.0 0.0 0.00 0.00 0.04 87 1004.9
20260508174526 79 30 0.0 0.0 0.00 0.00 0.04 86 1004.9
20260508174446 79 28 0.0 0.0 0.00 0.00 0.04 86 1004.9
20260508174337 79 45 0.0 0.0 0.00 0.00 0.04 86 1004.9
20260508174222 79 9 0.0 0.0 0.00 0.00 0.04 87 1004.9
20260508174124 79 9 0.0 0.0 0.00 0.00 0.04 87 1004.9
20260508174035 79 39 0.0 0.0 0.00 0.00 0.04 87 1004.9
20260508173935 79 46 0.0 0.0 0.00 0.00 0.04 86 1004.9
20260508173833 79 34 0.0 0.0 0.00 0.00 0.04 87 1004.9
20260508173753 79 32 0.0 0.0 0.00 0.00 0.04 88 1004.9
20260508173624 78 99 0.0 0.0 0.00 0.00 0.04 88 1004.9
20260508173544 78 99 0.0 0.0 0.00 0.00 0.04 87 1004.9
20260508173438 78 100 0.0 0.0 0.00 0.00 0.04 87 1004.9
20260508173338 78 30 0.0 0.0 0.00 0.00 0.04 87 1004.9
20260508173237 78 71 0.0 0.0 0.00 0.00 0.04 88 1004.9
20260508173127 78 32 0.0 0.0 0.00 0.00 0.04 88 1005.1
20260508173035 78 205 0.0 0.0 0.00 0.00 0.04 89 1005.1
20260508172929 78 205 0.0 0.0 0.00 0.00 0.04 89 1005.1
20260508172850 77 156 0.0 0.0 0.00 0.00 0.04 89 1005.1
20260508172721 77 19 0.0 0.0 0.00 0.00 0.04 90 1005.1
20260508172642 77 40 0.0 0.0 0.00 0.00 0.04 90 1005.1
20260508172518 77 40 0.0 0.0 0.00 0.00 0.04 90 1005.1
20260508172428 77 38 0.0 0.0 0.00 0.00 0.04 88 1005.1
20260508172334 77 22 0.0 0.0 0.00 0.00 0.04 89 1005.1
20260508172243 77 17 0.0 0.0 0.00 0.00 0.04 89 1005.1
20260508172135 77 52 0.0 0.0 0.00 0.00 0.04 89 1005.1
20260508172030 77 21 0.0 0.0 0.00 0.00 0.04 89 1005.1
20260508171932 77 21 0.0 0.0 0.00 0.00 0.04 90 1005.1
20260508171823 77 38 0.0 0.0 0.00 0.00 0.04 89 1005.1
20260508171748 77 11 0.0 0.0 0.00 0.00 0.04 89 1005.1
20260508171622 77 27 0.0 0.0 0.00 0.00 0.04 89 1005.3
20260508171539 77 22 0.0 0.0 0.00 0.00 0.04 89 1005.3
20260508171440 77 33 0.0 0.0 0.00 0.00 0.04 89 1005.3
20260508171352 77 40 0.0 0.0 0.00 0.00 0.04 89 1005.3
20260508171236 77 51 0.0 0.0 0.00 0.00 0.04 89 1005.3
20260508171129 77 40 0.0 0.0 0.00 0.00 0.04 89 1005.3
20260508171023 76 42 0.0 0.0 0.00 0.00 0.04 90 1005.3
20260508170925 76 28 0.0 0.0 0.00 0.00 0.04 90 1005.3
20260508170821 76 55 0.0 0.0 0.00 0.00 0.04 89 1005.3
20260508170745 76 28 0.0 0.0 0.00 0.00 0.04 89 1005.3
20260508170700 76 78 0.0 0.0 0.00 0.00 0.04 90 1005.3
20260508170540 76 15 0.0 0.0 0.00 0.00 0.04 90 1005.3
20260508170434 76 36 0.0 0.0 0.00 0.00 0.04 90 1005.3
20260508170334 76 37 0.0 0.0 0.00 0.00 0.04 90 1005.3
20260508170230 76 23 0.0 0.0 0.00 0.00 0.04 90 1005.3
20260508170150 76 54 0.0 0.0 0.00 0.00 0.04 89 1005.6
20260508170020 76 38 0.0 0.0 0.00 0.00 0.04 90 1005.6
20260508165948 76 24 0.0 0.0 0.00 0.00 0.04 90 1005.6
20260508165820 76 140 0.0 0.0 0.00 0.00 0.04 90 1005.6
20260508165731 76 163 0.0 0.0 0.00 0.00 0.04 90 1005.6
20260508165635 76 51 0.0 0.0 0.00 0.00 0.04 90 1005.6
20260508165532 76 51 0.0 0.0 0.00 0.00 0.04 90 1005.6
20260508165434 76 55 0.0 0.0 0.00 0.00 0.04 89 1005.6
20260508165326 76 55 0.0 0.0 0.00 0.00 0.04 89 1005.6
20260508165222 76 32 0.0 0.0 0.00 0.00 0.04 89 1005.6
20260508165123 76 46 0.0 0.0 0.00 0.00 0.04 89 1005.6
20260508165045 76 37 0.0 0.0 0.00 0.00 0.04 89 1005.6
20260508164934 76 58 0.0 0.0 0.00 0.00 0.04 89 1005.6
20260508164828 76 45 0.0 0.0 0.00 0.00 0.04 89 1005.6
20260508164718 76 55 0.0 0.0 0.00 0.00 0.04 90 1005.6
20260508164623 76 46 0.0 0.0 0.00 0.00 0.04 91 1005.7
20260508164546 76 46 0.0 0.0 0.00 0.00 0.04 91 1005.7
20260508164420 76 52 0.0 0.0 0.00 0.00 0.04 91 1005.7
20260508164331 75 101 0.0 0.0 0.00 0.00 0.04 91 1005.7
20260508164233 75 39 0.0 0.0 0.00 0.00 0.04 91 1005.7
20260508164125 75 40 0.0 0.0 0.00 0.00 0.04 91 1005.7
20260508164047 75 40 0.0 0.0 0.00 0.00 0.04 92 1005.7
20260508163958 75 40 0.0 0.0 0.00 0.00 0.04 92 1005.7
20260508163841 75 23 0.0 0.0 0.00 0.00 0.04 91 1005.7
20260508163740 75 29 0.0 0.0 0.00 0.00 0.04 91 1005.7
20260508163703 74 67 0.0 0.0 0.00 0.00 0.04 92 1005.7
20260508163559 74 57 0.0 0.0 0.00 0.00 0.04 92 1005.7
20260508163439 74 41 0.0 0.0 0.00 0.00 0.04 92 1005.7
20260508163332 74 48 0.0 0.0 0.00 0.00 0.04 92 1005.7
20260508163225 74 26 0.0 0.0 0.00 0.00 0.04 92 1005.7
20260508163125 74 96 0.0 0.0 0.00 0.00 0.04 92 1005.9
20260508163038 74 36 0.0 0.0 0.00 0.00 0.04 92 1005.9
20260508162944 74 39 0.0 0.0 0.00 0.00 0.04 92 1005.9
20260508162819 74 28 0.0 0.0 0.00 0.00 0.04 92 1005.9
20260508162731 74 38 0.0 0.0 0.00 0.00 0.04 93 1005.9
20260508162636 74 54 0.0 0.0 0.00 0.00 0.04 92 1005.9
20260508162529 73 37 0.0 0.0 0.00 0.00 0.04 92 1005.9
20260508162424 73 40 0.0 0.0 0.00 0.00 0.04 92 1005.9
20260508162325 73 31 0.0 0.0 0.00 0.00 0.04 92 1005.9
20260508162224 73 62 0.0 0.0 0.00 0.00 0.04 93 1005.9
20260508162148 73 24 0.0 0.0 0.00 0.00 0.04 93 1005.9
20260508162039 73 40 0.0 0.0 0.00 0.00 0.04 92 1005.9
20260508161942 73 35 0.0 0.0 0.00 0.00 0.04 93 1005.9
20260508161815 73 19 0.0 0.0 0.00 0.00 0.04 93 1005.9
20260508161742 73 38 0.0 0.0 0.00 0.00 0.04 93 1005.9
20260508161653 73 34 0.0 0.0 0.00 0.00 0.04 92 1006.0
20260508161534 73 68 0.0 0.0 0.00 0.00 0.04 93 1006.0
20260508161445 73 24 0.0 0.0 0.00 0.00 0.04 93 1006.0
20260508161328 73 54 0.0 0.0 0.00 0.00 0.04 93 1006.0
20260508161219 73 40 0.0 0.0 0.00 0.00 0.04 93 1006.0
20260508161143 73 28 0.0 0.0 0.00 0.00 0.04 93 1006.0
20260508161021 73 355 0.0 0.0 0.00 0.00 0.04 93 1006.0
20260508160943 73 35 0.0 0.0 0.00 0.00 0.04 93 1006.0
20260508160857 73 31 0.0 0.0 0.00 0.00 0.04 93 1006.0
20260508160737 73 65 0.0 0.0 0.00 0.00 0.04 93 1006.0
20260508160633 73 40 0.0 0.0 0.00 0.00 0.04 93 1006.0
20260508160531 73 42 0.0 0.0 0.00 0.00 0.04 93 1006.0
20260508160432 73 10 0.0 0.0 0.00 0.00 0.04 93 1006.0
20260508160326 73 34 0.0 0.0 0.00 0.00 0.04 93 1006.0
20260508160222 73 59 0.0 0.0 0.00 0.00 0.04 93 1006.0
20260508160123 73 46 0.0 0.0 0.00 0.00 0.04 93 1006.1
20260508160035 73 36 0.0 0.0 0.00 0.00 0.04 93 1006.1
20260508155939 73 17 0.0 0.0 0.00 0.00 0.04 93 1006.1
20260508155830 73 29 0.0 0.0 0.00 0.00 0.04 93 1006.1
20260508155731 73 118 0.0 0.0 0.00 0.00 0.04 93 1006.1
20260508155646 73 33 0.0 0.0 0.00 0.00 0.04 93 1006.1
20260508155547 73 44 0.0 0.0 0.00 0.00 0.04 92 1006.1
20260508155420 73 35 0.0 0.0 0.00 0.00 0.04 92 1006.1
20260508155326 73 25 0.0 0.0 0.00 0.00 0.04 92 1006.1
20260508155246 73 28 0.0 0.0 0.00 0.00 0.04 92 1006.1
20260508155140 73 20 0.0 0.0 0.00 0.00 0.04 93 1006.1
20260508155041 73 19 0.0 0.0 0.00 0.00 0.04 92 1006.1
20260508154918 73 42 0.0 0.0 0.00 0.00 0.04 92 1006.1
20260508154830 73 18 0.0 0.0 0.00 0.00 0.04 92 1006.1
20260508154730 73 50 0.0 0.0 0.00 0.00 0.04 93 1006.1
20260508154645 73 25 0.0 0.0 0.00 0.00 0.04 93 1006.1
20260508154548 73 17 0.0 0.0 0.00 0.00 0.04 93 1006.1
20260508154448 73 34 0.0 0.0 0.00 0.00 0.04 92 1006.1
20260508154319 74 26 0.0 0.0 0.00 0.00 0.04 92 1006.1
20260508154231 74 32 0.0 0.0 0.00 0.00 0.04 92 1006.1
20260508154117 74 355 0.0 0.0 0.00 0.00 0.04 92 1006.1
20260508154030 74 52 0.0 0.0 0.00 0.00 0.04 92 1006.1
20260508153931 74 32 0.0 0.0 0.00 0.00 0.04 92 1006.1
20260508153824 74 26 0.0 0.0 0.00 0.00 0.04 92 1006.1
20260508153745 74 34 0.0 0.0 0.00 0.00 0.04 92 1006.1
20260508153636 74 40 0.0 0.0 0.00 0.00 0.04 92 1006.1
20260508153531 74 44 0.0 0.0 0.00 0.00 0.04 92 1006.1
20260508153437 74 32 0.0 0.0 0.00 0.00 0.04 92 1006.1
20260508153329 74 32 0.0 0.0 0.00 0.00 0.04 92 1006.1
20260508153231 74 45 0.0 0.0 0.00 0.00 0.04 92 1006.1
20260508153123 74 80 0.0 0.0 0.00 0.00 0.04 92 1006.1
20260508153022 74 61 0.0 0.0 0.00 0.00 0.04 93 1006.1
20260508152922 74 61 0.0 0.0 0.00 0.00 0.04 93 1006.1
20260508152823 74 61 0.0 0.0 0.00 0.00 0.04 93 1006.1
20260508152733 74 61 0.0 0.0 0.00 0.00 0.04 93 1006.1
20260508152633 74 61 0.0 0.0 0.00 0.00 0.04 93 1006.1
20260508152530 74 61 0.0 0.0 0.00 0.00 0.04 93 1006.1
20260508152452 74 59 0.0 0.0 0.00 0.00 0.04 93 1006.1
20260508152322 74 355 0.0 0.0 0.00 0.00 0.04 93 1006.1
20260508152247 74 87 0.0 0.0 0.00 0.00 0.04 93 1006.1
20260508152150 74 40 0.0 0.0 0.00 0.00 0.04 93 1006.1
20260508152022 74 17 0.0 0.0 0.00 0.00 0.04 93 1006.1
20260508151918 74 15 0.0 0.0 0.00 0.00 0.04 94 1006.1
20260508151843 74 49 0.0 0.0 0.00 0.00 0.04 94 1006.1
20260508151804 74 36 0.0 0.0 0.00 0.00 0.04 94 1006.1
20260508151653 74 24 0.0 0.0 0.00 0.00 0.04 94 1006.4
20260508151539 74 14 0.0 0.0 0.00 0.00 0.04 94 1006.4
20260508151451 74 42 0.0 0.0 0.00 0.00 0.04 94 1006.4
20260508151332 73 42 0.0 0.0 0.00 0.00 0.04 93 1006.4
20260508151226 73 30 0.0 0.0 0.00 0.00 0.04 93 1006.4
20260508151118 74 38 0.0 0.0 0.00 0.00 0.04 93 1006.4
20260508151026 74 65 0.0 0.0 0.00 0.00 0.04 94 1006.4
20260508150921 74 38 0.0 0.0 0.00 0.00 0.04 93 1006.4
20260508150841 74 38 0.0 0.0 0.00 0.00 0.04 93 1006.4
20260508150716 74 55 0.0 0.0 0.00 0.00 0.04 93 1006.4
20260508150631 74 29 0.0 0.0 0.00 0.00 0.04 93 1006.4
20260508150534 74 30 0.0 0.0 0.00 0.00 0.04 93 1006.4
20260508150425 74 34 0.0 0.0 0.00 0.00 0.04 93 1006.4
20260508150331 74 58 0.0 0.0 0.00 0.00 0.04 93 1006.4
20260508150222 74 40 0.0 0.0 0.00 0.00 0.04 93 1006.4
20260508150143 74 22 0.0 0.0 0.00 0.00 0.04 94 1006.4
20260508150038 74 28 0.0 0.0 0.00 0.00 0.04 94 1006.3
20260508145929 74 59 0.0 0.0 0.00 0.00 0.04 94 1006.3
20260508145850 74 59 0.0 0.0 0.00 0.00 0.04 94 1006.3
20260508145720 73 9 0.0 0.0 0.00 0.00 0.04 94 1006.3
20260508145646 73 29 0.0 0.0 0.00 0.00 0.04 94 1006.3
20260508145610 73 24 0.0 0.0 0.00 0.00 0.04 93 1006.3
20260508145420 73 19 0.0 0.0 0.00 0.00 0.04 93 1006.3
20260508145336 73 25 0.0 0.0 0.00 0.00 0.04 93 1006.3
20260508145237 73 25 0.0 0.0 0.00 0.00 0.04 93 1006.3
20260508145131 73 25 0.0 0.0 0.00 0.00 0.04 93 1006.3
20260508145026 73 24 0.0 0.0 0.00 0.00 0.04 93 1006.3
20260508144946 73 24 0.0 0.0 0.00 0.00 0.04 93 1006.3
20260508144852 73 49 0.0 0.0 0.00 0.00 0.04 93 1006.3
20260508144726 74 24 0.0 0.0 0.00 0.00 0.04 93 1006.3
20260508144617 74 35 0.0 0.0 0.00 0.00 0.04 93 1006.2
20260508144542 74 89 0.0 0.0 0.00 0.00 0.04 94 1006.2
20260508144509 74 108 0.0 0.0 0.00 0.00 0.04 94 1006.2
20260508144320 73 108 0.0 0.0 0.00 0.00 0.04 94 1006.2
20260508144232 73 108 0.0 0.0 0.00 0.00 0.04 93 1006.2
20260508144153 73 108 0.0 0.0 0.00 0.00 0.04 93 1006.2
20260508144027 73 30 0.0 0.0 0.00 0.00 0.04 93 1006.2
20260508143939 73 30 0.0 0.0 0.00 0.00 0.04 93 1006.2
20260508143829 73 31 0.0 0.0 0.00 0.00 0.04 93 1006.2
20260508143756 73 30 0.0 0.0 0.00 0.00 0.04 93 1006.2
20260508143626 73 56 0.0 0.0 0.00 0.00 0.04 94 1006.2
20260508143526 73 71 0.0 0.0 0.00 0.00 0.04 94 1006.2
20260508143418 73 220 0.0 0.0 0.00 0.00 0.04 94 1006.2
20260508143342 73 220 0.0 0.0 0.00 0.00 0.04 94 1006.2
20260508143220 73 220 0.0 0.0 0.00 0.00 0.04 94 1006.2
20260508143134 73 220 0.0 0.0 0.00 0.00 0.04 94 1006.0
20260508143042 73 220 0.0 0.0 0.00 0.00 0.04 94 1006.0
20260508142953 73 216 0.0 0.0 0.00 0.00 0.04 94 1006.0
20260508142834 73 216 0.0 0.0 0.00 0.00 0.04 94 1006.0
20260508142727 73 216 0.0 0.0 0.00 0.00 0.04 94 1006.0
20260508142649 73 216 0.0 0.0 0.00 0.00 0.04 94 1006.0
20260508142520 73 176 0.0 0.0 0.00 0.00 0.04 94 1006.0
20260508142421 73 161 0.0 0.0 0.00 0.00 0.04 94 1006.0
20260508142345 73 212 0.0 0.0 0.00 0.00 0.04 94 1006.0
20260508142245 73 205 0.0 0.0 0.00 0.00 0.04 94 1006.0
20260508142139 73 188 0.0 0.0 0.00 0.00 0.04 94 1006.0
20260508142032 73 145 0.0 0.0 0.00 0.00 0.04 94 1006.0
20260508141954 73 213 0.0 0.0 0.00 0.00 0.04 94 1006.0
20260508141854 73 211 0.0 0.0 0.00 0.00 0.04 94 1006.0
20260508141724 73 209 0.0 0.0 0.00 0.00 0.04 94 1006.0
20260508141623 73 196 0.0 0.0 0.00 0.00 0.04 94 1005.8
20260508141524 73 213 0.0 0.0 0.00 0.00 0.04 94 1005.8
20260508141419 73 218 0.0 0.0 0.00 0.00 0.04 94 1005.8
20260508141344 73 218 0.0 0.0 0.00 0.00 0.04 94 1005.8
20260508141236 73 218 0.0 0.0 0.00 0.00 0.04 94 1005.8
20260508141127 73 216 0.0 0.0 0.00 0.00 0.04 94 1005.8
20260508141030 73 216 0.0 0.0 0.00 0.00 0.04 94 1005.8
20260508140951 73 205 0.0 0.0 0.00 0.00 0.04 94 1005.8
20260508140825 73 200 0.0 0.0 0.00 0.00 0.04 94 1005.8
20260508140721 73 180 0.0 0.0 0.00 0.00 0.04 94 1005.8
20260508140626 73 90 0.0 0.0 0.00 0.00 0.04 94 1005.8
20260508140539 73 90 0.0 0.0 0.00 0.00 0.04 94 1005.8
20260508140439 73 192 0.0 0.0 0.00 0.00 0.04 94 1005.8
20260508140330 73 219 0.0 0.0 0.00 0.00 0.04 94 1005.8
20260508140231 73 201 0.0 0.0 0.00 0.00 0.04 95 1005.8
20260508140142 73 221 0.0 0.0 0.00 0.00 0.04 95 1005.6
20260508140045 73 221 0.0 0.0 0.00 0.00 0.04 95 1005.6
20260508135949 73 217 0.0 0.0 0.00 0.00 0.04 95 1005.6
20260508135841 73 217 0.0 0.0 0.00 0.00 0.04 95 1005.6
20260508135743 73 217 0.0 0.0 0.00 0.00 0.04 95 1005.6
20260508135633 72 246 0.0 0.0 0.00 0.00 0.04 95 1005.6
20260508135526 72 217 0.0 0.0 0.00 0.00 0.04 95 1005.6
20260508135448 72 212 0.0 0.0 0.00 0.00 0.04 95 1005.6
20260508135318 72 212 0.0 0.0 0.00 0.00 0.04 95 1005.6
20260508135221 72 89 0.0 0.0 0.00 0.00 0.04 95 1005.6
20260508135146 72 89 0.0 0.0 0.00 0.00 0.04 95 1005.6
20260508135018 72 89 0.0 0.0 0.00 0.00 0.04 95 1005.6
20260508134930 72 101 0.0 0.0 0.00 0.00 0.04 95 1005.6
20260508134834 72 114 0.0 0.0 0.00 0.00 0.04 95 1005.6
20260508134726 72 63 0.0 0.0 0.00 0.00 0.04 95 1005.6
20260508134645 72 63 0.0 0.0 0.00 0.00 0.04 95 1005.8
20260508134539 72 71 0.0 0.0 0.00 0.00 0.04 95 1005.8
20260508134440 72 71 0.0 0.0 0.00 0.00 0.04 95 1005.8
20260508134334 72 71 0.0 0.0 0.00 0.00 0.04 95 1005.8
20260508134232 72 220 0.0 0.0 0.00 0.00 0.04 95 1005.8
20260508134133 72 211 0.0 0.0 0.00 0.00 0.04 95 1005.8
20260508134028 72 211 0.0 0.0 0.00 0.00 0.04 95 1005.8
20260508133919 72 211 0.0 0.0 0.00 0.00 0.04 95 1005.8
20260508133825 72 211 0.0 0.0 0.00 0.00 0.04 95 1005.8
20260508133722 72 211 0.0 0.0 0.00 0.00 0.04 95 1005.8
20260508133647 72 211 0.0 0.0 0.00 0.00 0.04 95 1005.8
20260508133600 72 211 0.0 0.0 0.00 0.00 0.04 95 1005.8
20260508133441 72 211 0.0 0.0 0.00 0.00 0.04 95 1005.8
20260508133336 72 211 0.0 0.0 0.00 0.00 0.04 95 1005.8
20260508133256 72 211 0.0 0.0 0.00 0.00 0.04 95 1005.8
20260508133133 72 211 0.0 0.0 0.00 0.00 0.04 95 1005.8
20260508133025 72 107 0.0 0.0 0.00 0.00 0.04 95 1005.8
20260508132933 72 106 0.0 0.0 0.00 0.00 0.04 95 1005.8
20260508132825 72 107 0.0 0.0 0.00 0.00 0.04 95 1005.8
20260508132749 72 107 0.0 0.0 0.00 0.00 0.04 95 1005.8
20260508132701 72 107 0.0 0.0 0.00 0.00 0.04 95 1005.8
20260508132540 72 340 0.0 0.0 0.00 0.00 0.04 95 1005.8
20260508132435 72 340 0.0 0.0 0.00 0.00 0.04 95 1005.8
20260508132331 71 340 0.0 0.0 0.00 0.00 0.04 95 1005.8
20260508132233 71 340 0.0 0.0 0.00 0.00 0.04 95 1005.8
20260508132130 71 340 0.0 0.0 0.00 0.00 0.04 95 1005.8
20260508132035 71 340 0.0 0.0 0.00 0.00 0.04 95 1005.8
20260508131925 71 23 0.0 0.0 0.00 0.00 0.04 95 1005.8
20260508131846 71 23 0.0 0.0 0.00 0.00 0.04 95 1005.8
20260508131718 71 23 0.0 0.0 0.00 0.00 0.04 95 1005.8
20260508131632 71 22 0.0 0.0 0.00 0.00 0.04 95 1006.0
20260508131532 71 22 0.0 0.0 0.00 0.00 0.04 95 1006.0
20260508131431 71 22 0.0 0.0 0.00 0.00 0.04 95 1006.0
20260508131327 71 22 0.0 0.0 0.00 0.00 0.04 95 1006.0
20260508131229 71 22 0.0 0.0 0.00 0.00 0.04 95 1006.0
20260508131123 71 40 0.0 0.0 0.00 0.00 0.04 95 1006.0
20260508131044 71 40 0.0 0.0 0.00 0.00 0.04 95 1006.0
20260508130939 71 40 0.0 0.0 0.00 0.00 0.04 95 1006.0
20260508130845 71 40 0.0 0.0 0.00 0.00 0.04 95 1006.0
20260508130757 71 40 0.0 0.0 0.00 0.00 0.04 95 1006.0
20260508130641 71 40 0.0 0.0 0.00 0.00 0.04 95 1006.0
20260508130535 71 63 0.0 0.0 0.00 0.00 0.04 95 1006.0
20260508130455 71 33 0.0 0.0 0.00 0.00 0.04 95 1006.0
20260508130332 71 33 0.0 0.0 0.00 0.00 0.04 95 1006.0
20260508130232 71 33 0.0 0.0 0.00 0.00 0.04 95 1006.0
20260508130124 71 33 0.0 0.0 0.00 0.00 0.04 95 1006.1
20260508130025 71 33 0.0 0.0 0.00 0.00 0.04 95 1006.1
20260508125938 71 33 0.0 0.0 0.00 0.00 0.04 95 1006.1
20260508125822 71 33 0.0 0.0 0.00 0.00 0.04 95 1006.1
20260508125734 71 33 0.0 0.0 0.00 0.00 0.04 96 1006.1
20260508125641 71 70 0.0 0.0 0.00 0.00 0.04 96 1006.1
20260508125536 71 44 0.0 0.0 0.00 0.00 0.04 96 1006.1
20260508125503 71 44 0.0 0.0 0.00 0.00 0.04 96 1006.1
20260508125354 71 44 0.0 0.0 0.00 0.00 0.04 96 1006.1
20260508125254 71 44 0.0 0.0 0.00 0.00 0.04 96 1006.1
20260508125158 71 44 0.0 0.0 0.00 0.00 0.04 96 1006.1
20260508125059 71 44 0.0 0.0 0.00 0.00 0.04 96 1006.1
20260508124932 71 44 0.0 0.0 0.00 0.00 0.04 96 1006.1
20260508124831 71 44 0.0 0.0 0.00 0.00 0.04 96 1006.1
20260508124734 71 40 0.0 0.0 0.00 0.00 0.04 96 1006.1
20260508124625 71 40 0.0 0.0 0.00 0.00 0.04 96 1006.3
20260508124552 71 40 0.0 0.0 0.00 0.00 0.04 96 1006.3
20260508124422 71 40 0.0 0.0 0.00 0.00 0.04 96 1006.3
20260508124323 71 40 0.0 0.0 0.00 0.00 0.04 96 1006.3
20260508124221 71 40 0.0 0.0 0.00 0.00 0.04 96 1006.3
20260508124141 71 40 0.0 0.0 0.00 0.00 0.04 96 1006.3
20260508124042 71 40 0.0 0.0 0.00 0.00 0.04 96 1006.3
20260508123922 71 40 0.0 0.0 0.00 0.00 0.04 96 1006.3
20260508123836 71 40 0.0 0.0 0.00 0.00 0.04 96 1006.3
20260508123803 71 40 0.0 0.0 0.00 0.00 0.04 96 1006.3
20260508123704 71 40 0.0 0.0 0.00 0.00 0.04 96 1006.3
20260508123536 71 40 0.0 0.0 0.00 0.00 0.04 96 1006.3
20260508123430 71 40 0.0 0.0 0.00 0.00 0.04 96 1006.3
20260508123355 71 40 0.0 0.0 0.00 0.00 0.04 96 1006.3
20260508123229 71 40 0.0 0.0 0.00 0.00 0.04 96 1006.3
20260508123133 71 40 0.0 0.0 0.00 0.00 0.04 96 1006.3
20260508123048 71 40 0.0 0.0 0.00 0.00 0.04 96 1006.3
20260508122948 71 296 0.0 0.0 0.00 0.00 0.04 96 1006.3
20260508122848 71 296 0.0 0.0 0.00 0.00 0.04 96 1006.3
20260508122718 71 296 0.0 0.0 0.00 0.00 0.04 96 1006.3
20260508122643 71 296 0.0 0.0 0.00 0.00 0.04 96 1006.3
20260508122605 71 296 0.0 0.0 0.00 0.00 0.04 96 1006.3
20260508122435 71 296 0.0 0.0 0.00 0.00 0.04 96 1006.3
20260508122335 71 296 0.0 0.0 0.00 0.00 0.04 96 1006.3
20260508122227 71 296 0.0 0.0 0.00 0.00 0.04 96 1006.3
20260508122133 71 296 0.0 0.0 0.00 0.00 0.04 96 1006.3
20260508122027 71 296 0.0 0.0 0.00 0.00 0.04 96 1006.3
20260508121923 71 296 0.0 0.0 0.00 0.00 0.04 96 1006.3
20260508121824 71 296 0.0 0.0 0.00 0.00 0.04 96 1006.3
20260508121721 71 296 0.0 0.0 0.00 0.00 0.04 96 1006.3
20260508121644 71 296 0.0 0.0 0.00 0.00 0.04 96 1006.3
20260508121539 70 296 0.0 0.0 0.00 0.00 0.04 96 1006.1
20260508121504 70 296 0.0 0.0 0.00 0.00 0.04 96 1006.1
20260508121336 70 296 0.0 0.0 0.00 0.00 0.04 96 1006.1
20260508121229 70 296 0.0 0.0 0.00 0.00 0.04 96 1006.1
20260508121150 70 296 0.0 0.0 0.00 0.00 0.04 96 1006.1
20260508121025 70 296 0.0 0.0 0.00 0.00 0.04 96 1006.1
20260508120927 70 296 0.0 0.0 0.00 0.00 0.04 96 1006.1
20260508120819 70 296 0.0 0.0 0.00 0.00 0.04 96 1006.1
20260508120719 70 296 0.0 0.0 0.00 0.00 0.04 96 1006.1
20260508120644 70 296 0.0 0.0 0.00 0.00 0.04 96 1006.1
20260508120604 70 296 0.0 0.0 0.00 0.00 0.04 96 1006.1
20260508120438 70 296 0.0 0.0 0.00 0.00 0.04 96 1006.1
20260508120343 70 296 0.0 0.0 0.00 0.00 0.04 96 1006.1
20260508120218 70 296 0.0 0.0 0.00 0.00 0.04 96 1006.1
20260508120130 70 296 0.0 0.0 0.00 0.00 0.04 96 1005.9
20260508120032 70 296 0.0 0.0 0.00 0.00 0.04 96 1005.9
20260508115929 71 294 0.0 0.0 0.00 0.00 0.04 96 1005.9
20260508115837 70 308 0.0 0.0 0.00 0.00 0.04 96 1005.9
20260508115736 71 309 0.0 0.0 0.00 0.00 0.04 96 1005.9
20260508115641 71 309 0.0 0.0 0.00 0.00 0.04 96 1005.9
20260508115536 71 309 0.0 0.0 0.00 0.00 0.04 96 1005.9
20260508115437 71 309 0.0 0.0 0.00 0.00 0.04 96 1005.9
20260508115330 71 309 0.0 0.0 0.00 0.00 0.04 96 1005.9
20260508115221 71 309 0.0 0.0 0.00 0.00 0.04 96 1005.9
20260508115127 71 309 0.0 0.0 0.00 0.00 0.04 96 1005.9
20260508115039 71 309 0.0 0.0 0.00 0.00 0.04 96 1005.9
20260508114941 71 309 0.0 0.0 0.00 0.00 0.04 96 1005.9
20260508114833 71 315 0.0 0.0 0.00 0.00 0.04 96 1005.9
20260508114724 71 315 0.0 0.0 0.00 0.00 0.04 96 1005.9
20260508114628 71 315 0.0 0.0 0.00 0.00 0.04 96 1005.7
20260508114523 71 315 0.0 0.0 0.00 0.00 0.04 96 1005.7
20260508114423 71 315 0.0 0.0 0.00 0.00 0.04 96 1005.7
20260508114324 71 315 0.0 0.0 0.00 0.00 0.04 96 1005.7
20260508114215 71 315 0.0 0.0 0.00 0.00 0.04 96 1005.7
20260508114143 71 315 0.0 0.0 0.00 0.00 0.04 96 1005.7
20260508114058 71 315 0.0 0.0 0.00 0.00 0.04 96 1005.7
20260508113941 71 315 0.0 0.0 0.00 0.00 0.04 96 1005.7
20260508113833 71 315 0.0 0.0 0.00 0.00 0.04 96 1005.7
20260508113732 71 315 0.0 0.0 0.00 0.00 0.04 96 1005.7
20260508113636 71 315 0.0 0.0 0.00 0.00 0.04 96 1005.7
20260508113528 71 315 0.0 0.0 0.00 0.00 0.04 96 1005.7
20260508113428 71 315 0.0 0.0 0.00 0.00 0.04 96 1005.7
20260508113341 71 327 0.0 0.0 0.00 0.00 0.04 96 1005.7
20260508113242 71 47 0.0 0.0 0.00 0.00 0.04 96 1005.7
20260508113137 71 47 0.0 0.0 0.00 0.00 0.04 96 1005.5
20260508113029 71 47 0.0 0.0 0.00 0.00 0.04 96 1005.5
20260508112935 71 47 0.0 0.0 0.00 0.00 0.04 96 1005.5
20260508112826 71 47 0.0 0.0 0.00 0.00 0.04 96 1005.5
20260508112722 71 47 0.0 0.0 0.00 0.00 0.04 96 1005.5
20260508112646 71 47 0.0 0.0 0.00 0.00 0.04 96 1005.5
20260508112610 71 47 0.0 0.0 0.00 0.00 0.04 96 1005.5
20260508112501 71 47 0.0 0.0 0.00 0.00 0.04 96 1005.5
20260508112340 71 47 0.0 0.0 0.00 0.00 0.04 96 1005.5
20260508112239 71 47 0.0 0.0 0.00 0.00 0.04 96 1005.5
20260508112204 71 47 0.0 0.0 0.00 0.00 0.04 96 1005.5
20260508112035 71 47 0.0 0.0 0.00 0.00 0.04 96 1005.5
20260508111941 71 47 0.0 0.0 0.00 0.00 0.04 96 1005.5
20260508111831 71 47 0.0 0.0 0.00 0.00 0.04 96 1005.5
20260508111726 71 47 0.0 0.0 0.00 0.00 0.04 96 1005.5
20260508111617 71 52 0.0 0.0 0.00 0.00 0.04 96 1005.2
20260508111522 71 52 0.0 0.0 0.00 0.00 0.04 96 1005.2
20260508111447 71 52 0.0 0.0 0.00 0.00 0.04 96 1005.2
20260508111319 71 52 0.0 0.0 0.00 0.00 0.04 96 1005.2
20260508111231 71 52 0.0 0.0 0.00 0.00 0.04 96 1005.2
20260508111135 71 52 0.0 0.0 0.00 0.00 0.04 96 1005.2
20260508111050 71 52 0.0 0.0 0.00 0.00 0.04 96 1005.2
20260508110950 71 52 0.0 0.0 0.00 0.00 0.04 96 1005.2
20260508110824 71 52 0.0 0.0 0.00 0.00 0.04 96 1005.2
20260508110748 71 52 0.0 0.0 0.00 0.00 0.04 96 1005.2
20260508110621 71 57 0.0 0.0 0.00 0.00 0.04 96 1005.2
20260508110525 71 25 0.0 0.0 0.00 0.00 0.04 96 1005.2
20260508110441 71 25 0.0 0.0 0.00 0.00 0.04 96 1005.2
20260508110341 71 23 0.0 0.0 0.00 0.00 0.04 96 1005.2
20260508110233 71 23 0.0 0.0 0.00 0.00 0.04 96 1005.2
20260508110127 71 23 0.0 0.0 0.00 0.00 0.04 96 1006.1
20260508110031 71 23 0.0 0.0 0.00 0.00 0.04 96 1006.1
20260508105947 71 295 0.0 0.0 0.00 0.00 0.04 96 1006.1
20260508105837 71 295 0.0 0.0 0.00 0.00 0.04 96 1006.1
20260508105729 71 295 0.0 0.0 0.00 0.00 0.04 96 1006.1
20260508105620 71 295 0.0 0.0 0.00 0.00 0.04 96 1006.1
20260508105526 71 295 0.0 0.0 0.00 0.00 0.04 96 1006.1
20260508105421 71 295 0.0 0.0 0.00 0.00 0.04 96 1006.1
20260508105343 71 295 0.0 0.0 0.00 0.00 0.04 96 1006.1
20260508105219 71 295 0.0 0.0 0.00 0.00 0.04 96 1006.1
20260508105132 71 295 0.0 0.0 0.00 0.00 0.04 96 1006.1
20260508105040 71 295 0.0 0.0 0.00 0.00 0.04 96 1006.1
20260508104934 71 295 0.0 0.0 0.00 0.00 0.04 96 1006.1
20260508104837 71 295 0.0 0.0 0.00 0.00 0.04 96 1006.1
20260508104747 71 295 0.0 0.0 0.00 0.00 0.04 96 1006.1
20260508104650 71 295 0.0 0.0 0.00 0.00 0.04 96 1006.1
20260508104529 71 295 0.0 0.0 0.00 0.00 0.04 96 1006.1
20260508104427 71 295 0.0 0.0 0.00 0.00 0.04 96 1006.1
20260508104324 71 295 0.0 0.0 0.00 0.00 0.04 96 1006.1
20260508104225 71 295 0.0 0.0 0.00 0.00 0.04 96 1006.1
20260508104121 71 295 0.0 0.0 0.00 0.00 0.04 96 1006.1
20260508104046 70 295 0.0 0.0 0.00 0.00 0.04 96 1006.1
20260508103958 70 295 0.0 0.0 0.00 0.00 0.04 96 1006.1
20260508103842 70 295 0.0 0.0 0.00 0.00 0.04 96 1006.1
20260508103731 70 295 0.0 0.0 0.00 0.00 0.04 96 1006.1
20260508103639 70 295 0.0 0.0 0.00 0.00 0.04 96 1006.1
20260508103540 70 295 0.0 0.0 0.00 0.00 0.04 96 1006.1
20260508103453 70 295 0.0 0.0 0.00 0.00 0.04 96 1006.1
20260508103340 70 295 0.0 0.0 0.00 0.00 0.04 96 1006.1
20260508103233 71 295 0.0 0.0 0.00 0.00 0.04 96 1006.1
20260508103154 70 295 0.0 0.0 0.00 0.00 0.04 96 1005.8
20260508103025 71 295 0.0 0.0 0.00 0.00 0.04 96 1005.8
20260508102920 71 295 0.0 0.0 0.00 0.00 0.04 96 1005.8
20260508102846 71 295 0.0 0.0 0.00 0.00 0.04 96 1005.8
20260508102806 71 295 0.0 0.0 0.00 0.00 0.04 96 1005.8
20260508102635 71 295 0.0 0.0 0.00 0.00 0.04 96 1005.8
20260508102540 70 295 0.0 0.0 0.00 0.00 0.04 96 1005.8
20260508102435 71 295 0.0 0.0 0.00 0.00 0.04 96 1005.8
20260508102326 70 293 0.0 0.0 0.00 0.00 0.04 96 1005.8
20260508102231 70 296 0.0 0.0 0.00 0.00 0.04 96 1005.8
20260508102144 71 296 0.0 0.0 0.00 0.00 0.04 96 1005.8
20260508102024 71 296 0.0 0.0 0.00 0.00 0.04 96 1005.8
20260508101939 71 296 0.0 0.0 0.00 0.00 0.04 96 1005.8
20260508101823 71 296 0.0 0.0 0.00 0.00 0.04 96 1005.8
20260508101746 71 296 0.0 0.0 0.00 0.00 0.04 96 1005.8
20260508101639 71 296 0.0 0.0 0.00 0.00 0.04 96 1005.8
20260508101603 71 296 0.0 0.0 0.00 0.00 0.04 96 1005.6
20260508101420 71 296 0.0 0.0 0.00 0.00 0.04 96 1005.6
20260508101334 71 296 0.0 0.0 0.00 0.00 0.04 96 1005.6
20260508101301 71 296 0.0 0.0 0.00 0.00 0.04 96 1005.6
20260508101140 71 295 0.0 0.0 0.00 0.00 0.04 96 1005.6
20260508101032 71 295 0.0 0.0 0.00 0.00 0.04 96 1005.6
20260508100931 71 295 0.0 0.0 0.00 0.00 0.04 96 1005.6
20260508100835 71 295 0.0 0.0 0.00 0.00 0.04 96 1005.6
20260508100730 71 295 0.0 0.0 0.00 0.00 0.04 96 1005.6
20260508100626 71 295 0.0 0.0 0.00 0.00 0.04 96 1005.6
20260508100527 71 295 0.0 0.0 0.00 0.00 0.04 96 1005.6
20260508100422 71 308 0.0 0.0 0.00 0.00 0.04 96 1005.6
20260508100342 71 308 0.0 0.0 0.00 0.00 0.04 96 1005.6
20260508100222 71 307 0.0 0.0 0.00 0.00 0.04 96 1005.6
20260508100133 71 308 0.0 0.0 0.00 0.00 0.04 96 1005.1
20260508100057 71 307 0.0 0.0 0.00 0.00 0.04 96 1005.1
20260508095957 71 308 0.0 0.0 0.00 0.00 0.04 96 1005.1
20260508095828 71 308 0.0 0.0 0.00 0.00 0.04 96 1005.1
20260508095720 71 308 0.0 0.0 0.00 0.00 0.04 96 1005.1
20260508095624 71 308 0.0 0.0 0.00 0.00 0.04 96 1005.1
20260508095525 71 308 0.0 0.0 0.00 0.00 0.04 96 1005.1
20260508095445 71 308 0.0 0.0 0.00 0.00 0.04 96 1005.1
20260508095317 71 307 0.0 0.0 0.00 0.00 0.04 96 1005.1
20260508095233 71 308 0.0 0.0 0.00 0.00 0.04 96 1005.1
20260508095134 71 308 0.0 0.0 0.00 0.00 0.04 96 1005.1
20260508095051 71 308 0.0 0.0 0.00 0.00 0.04 96 1005.1
20260508094931 71 308 0.0 0.0 0.00 0.00 0.04 96 1005.1
20260508094822 71 308 0.0 0.0 0.00 0.00 0.04 96 1005.1
20260508094751 71 308 0.0 0.0 0.00 0.00 0.04 96 1005.1
20260508094621 71 298 0.0 0.0 0.00 0.00 0.04 96 1005.7
20260508094516 71 298 0.0 0.0 0.00 0.00 0.04 96 1005.7
20260508094443 71 298 0.0 0.0 0.00 0.00 0.03 96 1005.7
20260508094355 71 298 0.0 0.0 0.00 0.00 0.03 96 1005.7
20260508094236 71 298 0.0 0.0 0.00 0.00 0.03 96 1005.7
20260508094127 71 298 0.0 0.0 0.00 0.00 0.03 96 1005.7
20260508094027 71 298 0.0 0.0 0.00 0.00 0.03 96 1005.7
20260508093929 71 298 0.0 0.0 0.00 0.00 0.03 96 1005.7
20260508093840 71 298 0.0 0.0 0.00 0.00 0.03 96 1005.7
20260508093740 71 298 0.0 0.0 0.00 0.00 0.03 96 1005.7
20260508093630 71 298 0.0 0.0 0.00 0.00 0.03 96 1005.7
20260508093522 71 298 0.0 0.0 0.00 0.00 0.03 96 1005.7
20260508093424 71 291 0.0 0.0 0.00 0.00 0.03 96 1005.7
20260508093323 71 291 0.0 0.0 0.00 0.00 0.03 96 1005.7
20260508093242 71 293 0.0 0.0 0.00 0.00 0.03 96 1005.7
20260508093144 71 292 0.0 0.0 0.00 0.00 0.03 96 1005.7
20260508093041 71 292 0.0 0.0 0.00 0.00 0.03 96 1006.1
20260508092937 71 292 0.0 0.0 0.00 0.00 0.03 96 1006.1
20260508092828 71 294 0.0 0.0 0.00 0.00 0.03 96 1006.1
20260508092731 71 294 0.0 0.0 0.00 0.00 0.03 96 1006.1
20260508092630 71 285 0.0 0.0 0.00 0.00 0.03 96 1006.1
20260508092535 71 284 0.0 0.0 0.00 0.00 0.03 96 1006.1
20260508092426 71 284 0.0 0.0 0.00 0.00 0.03 96 1006.1
20260508092319 71 284 0.0 0.0 0.00 0.00 0.03 96 1006.1
20260508092242 71 284 0.0 0.0 0.00 0.00 0.03 96 1006.1
20260508092120 71 284 0.0 0.0 0.00 0.00 0.03 96 1006.1
20260508092034 71 284 0.0 0.0 0.00 0.00 0.03 96 1006.1
20260508091939 71 284 0.0 0.0 0.00 0.00 0.03 96 1006.1
20260508091904 71 284 0.0 0.0 0.00 0.00 0.03 96 1006.1
20260508091735 71 288 0.0 0.0 0.00 0.00 0.03 96 1006.1
20260508091629 71 289 0.0 0.0 0.00 0.00 0.03 96 1005.6
20260508091529 71 299 0.0 0.0 0.00 0.00 0.03 96 1005.6
20260508091421 71 300 0.0 0.0 0.00 0.00 0.03 96 1005.6
20260508091323 71 295 0.0 0.0 0.00 0.00 0.03 96 1005.6
20260508091236 71 294 0.0 0.0 0.00 0.00 0.03 96 1005.6
20260508091136 71 294 0.0 0.0 0.00 0.00 0.03 96 1005.6
20260508091035 71 294 0.0 0.0 0.00 0.00 0.03 96 1005.6
20260508090929 71 294 0.0 0.0 0.00 0.00 0.03 96 1005.6
20260508090832 71 294 0.0 0.0 0.00 0.00 0.03 96 1005.6
20260508090723 71 294 0.0 0.0 0.00 0.00 0.03 96 1005.6
20260508090647 71 295 0.0 0.0 0.00 0.00 0.03 96 1005.6
20260508090520 71 295 0.0 0.0 0.00 0.00 0.03 96 1005.6
20260508090433 71 295 0.0 0.0 0.00 0.00 0.03 96 1005.6
20260508090339 71 295 0.0 0.0 0.00 0.00 0.03 96 1005.6
20260508090231 71 295 0.0 0.0 0.00 0.00 0.03 96 1005.6
20260508090152 71 295 0.0 0.0 0.00 0.00 0.03 96 1005.3
20260508090046 71 295 0.0 0.0 0.00 0.00 0.03 96 1005.3
20260508085945 71 295 0.0 0.0 0.00 0.00 0.03 96 1005.3
20260508085820 71 295 0.0 0.0 0.00 0.00 0.03 96 1005.3
20260508085723 71 295 0.0 0.0 0.00 0.00 0.03 96 1005.3
20260508085634 71 292 0.0 0.0 0.00 0.00 0.03 96 1005.3
20260508085540 71 292 0.0 0.0 0.00 0.00 0.03 96 1005.3
20260508085433 71 292 0.0 0.0 0.00 0.00 0.03 96 1005.3
20260508085353 71 351 0.0 0.0 0.00 0.00 0.03 96 1005.3
20260508085225 71 351 0.0 0.0 0.00 0.00 0.03 96 1005.3
20260508085115 71 351 0.0 0.0 0.00 0.00 0.03 96 1005.3
20260508085024 71 351 0.0 0.0 0.00 0.00 0.03 96 1005.3
20260508084947 71 351 0.0 0.0 0.00 0.00 0.03 96 1005.3
20260508084836 71 351 0.0 0.0 0.00 0.00 0.03 96 1005.3
20260508084746 71 351 0.0 0.0 0.00 0.00 0.03 96 1005.3
20260508084638 72 351 0.0 0.0 0.00 0.00 0.03 96 1005.3
20260508084539 72 351 0.0 0.0 0.00 0.00 0.03 96 1005.6
20260508084452 72 351 0.0 0.0 0.00 0.00 0.03 96 1005.6
20260508084352 72 351 0.0 0.0 0.00 0.00 0.03 96 1005.6
20260508084222 72 351 0.0 0.0 0.00 0.00 0.03 96 1005.6
20260508084144 72 351 0.0 0.0 0.00 0.00 0.03 96 1005.6
20260508084018 72 351 0.0 0.0 0.00 0.00 0.03 96 1005.6
20260508083942 72 17 0.0 0.0 0.00 0.00 0.03 96 1005.6
20260508083821 72 17 0.0 0.0 0.00 0.00 0.03 96 1005.6
20260508083723 72 17 0.0 0.0 0.00 0.00 0.03 96 1005.6
20260508083636 72 16 0.0 0.0 0.00 0.00 0.03 96 1005.6
20260508083538 72 17 0.0 0.0 0.00 0.00 0.03 96 1005.6
20260508083449 72 17 0.0 0.0 0.00 0.00 0.03 96 1005.6
20260508083353 72 16 0.0 0.0 0.00 0.00 0.03 96 1005.6
20260508083223 72 17 0.0 0.0 0.00 0.00 0.03 96 1005.6
20260508083124 72 17 0.0 0.0 0.00 0.00 0.03 96 1005.9
20260508083045 72 17 0.0 0.0 0.00 0.00 0.03 96 1005.9
20260508082921 72 17 0.0 0.0 0.00 0.00 0.03 96 1005.9
20260508082626 72 17 0.0 0.0 0.00 0.00 0.03 96 1005.9
20260508082543 72 17 0.0 0.0 0.00 0.00 0.03 96 1005.9
20260508082505 72 16 0.0 0.0 0.00 0.00 0.03 96 1005.9
20260508082405 72 17 0.0 0.0 0.00 0.00 0.03 96 1005.9
20260508082215 72 17 0.0 0.0 0.00 0.00 0.03 96 1005.9
20260508082130 72 17 0.0 0.0 0.00 0.00 0.03 96 1005.9
20260508082041 72 17 0.0 0.0 0.00 0.00 0.03 96 1005.9
20260508081932 72 16 0.0 0.0 0.00 0.00 0.03 96 1005.9
20260508081833 72 17 0.0 0.0 0.00 0.00 0.03 96 1005.9
20260508081726 72 17 0.0 0.0 0.00 0.00 0.03 96 1005.9
20260508081646 72 16 0.0 0.0 0.00 0.00 0.03 96 1006.5
20260508081520 72 17 0.0 0.0 0.00 0.00 0.03 96 1006.5
20260508081446 72 17 0.0 0.0 0.00 0.00 0.03 96 1006.5
20260508081358 72 332 0.0 0.0 0.00 0.00 0.03 96 1006.5
20260508081246 72 333 0.0 0.0 0.00 0.00 0.03 96 1006.5
20260508081201 72 333 0.0 0.0 0.00 0.00 0.03 96 1006.5
20260508081042 72 333 0.0 0.0 0.00 0.00 0.03 96 1006.5
20260508080932 72 333 0.0 0.0 0.00 0.00 0.03 96 1006.5
20260508080623 72 327 0.0 0.0 0.00 0.00 0.03 96 1006.5
20260508080322 72 291 0.0 0.0 0.00 0.00 0.03 96 1006.5
20260508075834 72 291 0.0 0.0 0.00 0.00 0.03 96 1006.0
20260508072923 72 27 0.0 0.0 0.00 0.00 0.03 96 1006.1
20260508072835 73 27 0.0 0.0 0.00 0.00 0.03 96 1006.1
20260508072718 73 23 0.0 0.0 0.00 0.00 0.03 96 1006.1
20260508072630 73 23 0.0 0.0 0.00 0.00 0.03 96 1006.1
20260508072537 73 47 0.0 0.0 0.00 0.00 0.03 96 1006.1
20260508072433 73 31 0.0 0.0 0.00 0.00 0.03 96 1006.1
20260508072324 73 23 0.0 0.0 0.00 0.00 0.03 96 1006.1
20260508072231 73 25 0.0 0.0 0.00 0.00 0.03 96 1006.1
20260508072126 73 25 0.0 0.0 0.00 0.00 0.03 96 1006.1
20260508072048 73 24 0.0 0.0 0.00 0.00 0.03 96 1006.1
20260508071923 73 42 0.0 0.0 0.00 0.00 0.03 96 1006.1
20260508071839 73 39 0.0 0.0 0.00 0.00 0.03 96 1006.1
20260508071741 73 39 0.0 0.0 0.00 0.00 0.03 96 1006.1
20260508071631 73 39 0.0 0.0 0.00 0.00 0.03 96 1006.6
20260508071555 73 22 0.0 0.0 0.00 0.00 0.03 96 1006.6
20260508071425 73 9 0.0 0.0 0.00 0.00 0.03 96 1006.6
20260508071347 73 9 0.0 0.0 0.00 0.00 0.03 96 1006.6
20260508071221 73 37 0.0 0.0 0.00 0.00 0.03 96 1006.6
20260508071148 73 23 0.0 0.0 0.00 0.00 0.03 96 1006.6
20260508071038 73 23 0.0 0.0 0.00 0.00 0.03 96 1006.6
20260508070940 73 22 0.0 0.0 0.00 0.00 0.03 96 1006.6
20260508070833 73 46 0.0 0.0 0.00 0.00 0.03 96 1006.6
20260508070728 73 47 0.0 0.0 0.00 0.00 0.03 96 1006.6
20260508070630 73 14 0.0 0.0 0.00 0.00 0.03 96 1006.6
20260508070523 73 36 0.0 0.0 0.00 0.00 0.03 96 1006.6
20260508070444 73 36 0.0 0.0 0.00 0.00 0.03 96 1006.6
20260508070320 73 15 0.0 0.0 0.00 0.00 0.03 96 1006.6
20260508070232 73 15 0.0 0.0 0.00 0.00 0.03 96 1006.6
20260508070152 73 38 0.0 0.0 0.00 0.00 0.03 96 1006.6
20260508070026 73 56 0.0 0.0 0.00 0.00 0.03 96 1006.6
20260508065926 73 26 0.0 0.0 0.00 0.00 0.03 96 1006.6
20260508065839 73 26 0.0 0.0 0.00 0.00 0.03 96 1006.6
20260508065740 73 36 0.0 0.0 0.00 0.00 0.03 96 1006.6
20260508065619 73 13 0.0 0.0 0.00 0.00 0.03 96 1006.6
20260508065530 73 40 0.0 0.0 0.00 0.00 0.03 96 1006.6
20260508065432 73 40 0.0 0.0 0.00 0.00 0.03 96 1006.6
20260508065325 73 40 0.0 0.0 0.00 0.00 0.03 96 1006.6
20260508065246 73 35 0.0 0.0 0.00 0.00 0.03 96 1006.6
20260508065139 73 46 0.0 0.0 0.00 0.00 0.03 96 1006.6
20260508065042 73 49 0.0 0.0 0.00 0.00 0.03 96 1006.6
20260508064933 73 29 0.0 0.0 0.00 0.00 0.03 96 1006.6
20260508064830 73 20 0.0 0.0 0.00 0.00 0.03 96 1006.6
20260508064734 73 76 0.0 0.0 0.00 0.00 0.03 96 1006.6
20260508064625 73 76 0.0 0.0 0.00 0.00 0.03 96 1006.0
20260508064518 72 71 0.0 0.0 0.00 0.00 0.03 96 1006.0
20260508064443 72 79 0.0 0.0 0.00 0.00 0.03 96 1006.0
20260508064343 72 132 0.0 0.0 0.00 0.00 0.03 96 1006.0
20260508064235 72 44 0.0 0.0 0.00 0.00 0.03 96 1006.0
20260508064144 72 26 0.0 0.0 0.00 0.00 0.03 96 1006.0
20260508064035 72 90 0.0 0.0 0.00 0.00 0.03 96 1006.0
20260508063927 72 54 0.0 0.0 0.00 0.00 0.03 96 1006.0
20260508063834 72 29 0.0 0.0 0.00 0.00 0.03 96 1006.0
20260508063728 72 30 0.0 0.0 0.00 0.00 0.03 96 1006.0
20260508063620 72 82 0.0 0.0 0.00 0.00 0.03 96 1006.0
20260508063523 72 61 0.0 0.0 0.00 0.00 0.03 96 1006.0
20260508063418 72 15 0.0 0.0 0.00 0.00 0.03 96 1006.0
20260508063325 72 32 0.0 0.0 0.00 0.00 0.03 96 1006.0
20260508063240 72 27 0.0 0.0 0.00 0.00 0.03 96 1006.0
20260508063201 72 23 0.0 0.0 0.00 0.00 0.03 96 1006.0
20260508063042 72 22 0.0 0.0 0.00 0.00 0.03 96 1007.0
20260508062918 72 34 0.0 0.0 0.00 0.00 0.03 96 1007.0
20260508062832 72 26 0.0 0.0 0.00 0.00 0.03 96 1007.0
20260508062735 72 26 0.0 0.0 0.00 0.00 0.03 96 1007.0
20260508062636 72 26 0.0 0.0 0.00 0.00 0.03 96 1007.0
20260508062535 72 28 0.0 0.0 0.00 0.00 0.03 96 1007.0
20260508062433 72 30 0.0 0.0 0.00 0.00 0.03 96 1007.0
20260508062325 72 30 0.0 0.0 0.00 0.00 0.03 96 1007.0
20260508062225 72 26 0.0 0.0 0.00 0.00 0.03 96 1007.0
20260508062137 72 29 0.0 0.0 0.00 0.00 0.03 96 1007.0
20260508062038 72 29 0.0 0.0 0.00 0.00 0.03 96 1007.0
20260508061933 72 29 0.0 0.0 0.00 0.00 0.03 96 1007.0
20260508061830 72 29 0.0 0.0 0.00 0.00 0.03 96 1007.0
20260508061730 72 29 0.0 0.0 0.00 0.00 0.03 96 1007.0
20260508061622 72 29 0.0 0.0 0.00 0.00 0.03 96 1006.7
20260508061517 72 29 0.0 0.0 0.00 0.00 0.03 96 1006.7
20260508061443 72 29 0.0 0.0 0.00 0.00 0.03 96 1006.7
20260508061403 72 29 0.0 0.0 0.00 0.00 0.03 96 1006.7
20260508061157 72 29 0.0 0.0 0.00 0.00 0.03 96 1006.7
20260508061054 72 29 0.0 0.0 0.00 0.00 0.03 96 1006.7
20260508060938 72 38 0.0 0.0 0.00 0.00 0.03 96 1006.7
20260508060900 72 38 0.0 0.0 0.00 0.00 0.03 96 1006.7
20260508060749 72 36 0.0 0.0 0.00 0.00 0.03 95 1006.7
20260508060629 72 36 0.0 0.0 0.00 0.00 0.03 95 1006.7
20260508060541 72 36 0.0 0.0 0.00 0.00 0.03 95 1006.7
20260508060441 72 36 0.0 0.0 0.00 0.00 0.03 95 1006.7
20260508060333 72 55 0.0 0.0 0.00 0.00 0.03 95 1006.7
20260508060229 72 46 0.0 0.0 0.00 0.00 0.03 95 1006.7
20260508060152 72 49 0.0 0.0 0.00 0.00 0.03 95 1007.8
20260508060055 72 49 0.0 0.0 0.00 0.00 0.03 95 1007.8
20260508055934 72 36 0.0 0.0 0.00 0.00 0.02 95 1007.8
20260508055835 72 206 0.0 0.0 0.00 0.00 0.02 95 1007.8
20260508055726 72 55 0.0 0.0 0.00 0.00 0.02 95 1007.8
20260508055621 72 85 0.0 0.0 0.00 0.00 0.02 95 1007.8
20260508055526 72 5 0.0 0.0 0.00 0.00 0.02 95 1007.8
20260508055422 72 96 0.0 0.0 0.00 0.00 0.01 95 1007.8
20260508055346 72 75 0.0 0.0 0.00 0.00 0.01 95 1007.8
20260508055218 72 103 0.0 0.0 0.00 0.00 0.01 95 1007.8
20260508055131 72 94 0.0 0.0 0.00 0.00 0.01 95 1007.8
20260508055035 72 96 0.0 0.0 0.00 0.00 0.01 95 1007.8
20260508054927 72 119 0.0 0.0 0.00 0.00 0.01 95 1007.8
20260508054848 72 158 0.0 0.0 0.00 0.00 0.01 95 1007.8
20260508054723 72 59 0.0 0.0 0.00 0.00 0.01 95 1007.8
20260508054637 72 59 0.0 0.0 0.00 0.00 0.01 95 1007.8
20260508054539 72 63 0.0 0.0 0.00 0.00 0.01 95 1009.0
20260508054431 72 63 0.0 0.0 0.00 0.00 0.01 95 1009.0
20260508054351 72 63 0.0 0.0 0.00 0.00 0.01 95 1009.0
20260508054221 72 63 0.0 0.0 0.00 0.00 0.00 95 1009.0
20260508054134 72 97 0.0 0.0 0.00 0.00 0.00 95 1009.0
20260508054036 72 97 0.0 0.0 0.00 0.00 0.00 95 1009.0
20260508053937 72 97 0.0 0.0 0.00 0.00 0.00 95 1009.0
20260508053830 72 97 0.0 0.0 0.00 0.00 0.00 95 1009.0
20260508053731 72 282 0.0 0.0 0.00 0.00 0.00 95 1009.0
20260508053623 72 175 0.0 0.0 0.00 0.00 0.00 95 1009.0
20260508053544 72 175 0.0 0.0 0.00 0.00 0.00 95 1009.0
20260508053415 72 175 0.0 0.0 0.00 0.00 0.00 95 1009.0
20260508053329 72 175 0.0 0.0 0.00 0.00 0.00 95 1009.0
20260508053240 72 175 0.0 0.0 0.00 0.00 0.00 95 1009.0
20260508053130 72 208 0.0 0.0 0.00 0.00 0.00 95 1008.5
20260508053031 72 208 0.0 0.0 0.00 0.00 0.00 95 1008.5
20260508052925 72 205 0.0 0.0 0.00 0.00 0.00 95 1008.5
20260508052850 72 205 0.0 0.0 0.00 0.00 0.00 95 1008.5
20260508052721 72 187 0.0 0.0 0.00 0.00 0.00 95 1008.5
20260508052633 72 234 0.0 0.0 0.00 0.00 0.00 95 1008.5
20260508052540 72 200 0.0 0.0 0.00 0.00 0.00 95 1008.5
20260508052418 72 200 0.0 0.0 0.00 0.00 0.00 95 1008.5
20260508052344 72 200 0.0 0.0 0.00 0.00 0.00 94 1008.5
20260508052219 72 200 0.0 0.0 0.00 0.00 0.00 94 1008.5
20260508052134 72 200 0.0 0.0 0.00 0.00 0.00 94 1008.5
20260508052037 72 200 0.0 0.0 0.00 0.00 0.00 94 1008.5
20260508051936 72 200 0.0 0.0 0.00 0.00 0.00 94 1008.5
20260508051831 72 200 0.0 0.0 0.00 0.00 0.00 94 1008.5
20260508051730 72 200 0.0 0.0 0.00 0.00 0.02 94 1008.5
20260508051655 72 200 0.0 0.0 0.00 0.00 0.02 94 1007.2
20260508051525 72 200 0.0 0.0 0.00 0.00 0.02 94 1007.2
20260508051447 72 200 0.0 0.0 0.00 0.00 0.02 94 1007.2
20260508051341 72 200 0.0 0.0 0.00 0.00 0.02 94 1007.2
20260508051302 72 232 0.0 0.0 0.00 0.00 0.02 94 1007.2
20260508051154 72 232 0.0 0.0 0.00 0.00 0.02 94 1007.2
20260508051036 72 170 0.0 0.0 0.00 0.00 0.02 94 1007.2
20260508050931 72 172 0.0 0.0 0.00 0.00 0.02 94 1007.2
20260508050856 72 171 0.0 0.0 0.00 0.00 0.02 94 1007.2
20260508050727 72 174 0.0 0.0 0.00 0.00 0.01 94 1007.2
20260508050647 72 41 0.0 0.0 0.00 0.00 0.01 94 1007.2
20260508050520 72 41 0.0 0.0 0.00 0.00 0.01 94 1007.2
20260508050431 72 42 0.0 0.0 0.00 0.00 0.01 94 1007.2
20260508050336 72 42 0.0 0.0 0.00 0.00 0.01 94 1007.2
20260508050239 72 41 0.0 0.0 0.00 0.00 0.01 94 1007.2
20260508050201 72 41 0.0 0.0 0.00 0.00 0.01 94 1007.2
20260508050052 72 342 0.0 0.0 0.00 0.00 0.01 94 1007.5
20260508045950 72 342 0.0 0.0 0.00 0.00 0.01 94 1007.5
20260508045824 72 342 0.0 0.0 0.00 0.00 0.01 94 1007.5
20260508045724 72 342 0.0 0.0 0.00 0.00 0.01 94 1007.5
20260508045644 72 90 0.0 0.0 0.00 0.00 0.01 94 1007.5
20260508045519 72 90 0.0 0.0 0.00 0.00 0.01 94 1007.5
20260508045431 72 90 0.0 0.0 0.00 0.00 0.01 94 1007.5
20260508045336 72 105 0.0 0.0 0.00 0.00 0.01 94 1007.5
20260508045251 72 105 0.0 0.0 0.00 0.00 0.01 94 1007.5
20260508045151 72 103 0.0 0.0 0.00 0.00 0.01 94 1007.5
20260508045024 72 360 0.0 0.0 0.00 0.00 0.01 94 1007.5
20260508044929 72 360 0.0 0.0 0.00 0.00 0.01 94 1007.5
20260508044828 72 360 0.0 0.0 0.00 0.00 0.01 94 1007.5
20260508044733 72 360 0.0 0.0 0.00 0.00 0.01 94 1007.5
20260508044653 72 360 0.0 0.0 0.00 0.00 0.01 94 1006.5
20260508044532 72 16 0.0 0.0 0.00 0.00 0.01 94 1006.5
20260508044430 72 346 0.0 0.0 0.00 0.00 0.01 94 1006.5
20260508044320 72 346 0.0 0.0 0.00 0.00 0.01 94 1006.5
20260508044247 72 24 0.0 0.0 0.00 0.00 0.01 94 1006.5
20260508044153 72 24 0.0 0.0 0.00 0.00 0.01 94 1006.5
20260508044024 72 53 0.0 0.0 0.00 0.00 0.01 93 1006.5
20260508043928 72 49 1.0 0.0 0.00 0.00 0.01 94 1006.5
20260508043842 72 40 1.0 0.0 0.00 0.00 0.01 93 1006.5
20260508043742 72 40 1.0 0.0 0.00 0.00 0.01 93 1006.5
20260508043641 72 40 1.0 0.0 0.00 0.00 0.01 93 1006.5
20260508043520 72 285 1.0 0.0 0.00 0.00 0.01 93 1006.5
20260508043435 72 259 1.0 0.0 0.00 0.00 0.01 93 1006.5
20260508043339 72 331 1.0 0.0 0.00 0.00 0.01 93 1006.5
20260508043231 72 331 1.0 0.0 0.00 0.00 0.01 93 1006.5
20260508043123 72 15 0.0 0.0 0.00 0.00 0.01 93 1006.1
20260508043027 72 37 0.0 0.0 0.00 0.00 0.01 93 1006.1
20260508042922 72 321 0.0 0.0 0.00 0.00 0.01 93 1006.1
20260508042846 72 335 0.0 0.0 0.00 0.00 0.01 93 1006.1
20260508042721 72 137 0.0 0.0 0.00 0.00 0.01 93 1006.1
20260508042633 72 344 0.0 0.0 0.00 0.00 0.01 93 1006.1
20260508042537 72 92 0.0 0.0 0.00 0.00 0.01 93 1006.1
20260508042453 72 113 0.0 0.0 0.00 0.00 0.01 93 1006.1
20260508042354 71 34 0.0 0.0 0.00 0.00 0.01 93 1006.1
20260508042254 71 87 0.0 0.0 0.00 0.00 0.01 93 1006.1
20260508042123 71 108 1.0 0.0 0.00 0.00 0.01 93 1006.1
20260508042021 71 87 0.0 0.0 0.00 0.00 0.01 93 1006.1
20260508041950 71 87 0.0 0.0 0.00 0.00 0.01 93 1006.1
20260508041911 71 23 0.0 0.0 0.00 0.00 0.01 93 1006.1
20260508041721 71 111 0.0 0.0 0.00 0.00 0.01 93 1006.1
20260508041632 71 42 1.0 0.0 0.00 0.00 0.01 93 1006.3
20260508041215 71 119 1.0 0.0 0.00 0.00 0.01 93 1006.3
20260508041143 71 161 1.0 0.0 0.00 0.00 0.01 93 1006.3
20260508041027 71 215 1.0 0.0 0.00 0.00 0.01 93 1006.3
20260508040830 71 225 1.0 0.0 0.00 0.00 0.01 93 1006.3
20260508040735 71 71 1.0 0.0 0.00 0.00 0.01 93 1006.3
20260508040656 71 112 1.0 0.0 0.00 0.00 0.01 93 1006.3
20260508040321 71 99 2.0 0.0 0.00 0.00 0.01 93 1006.3
20260508040243 71 26 2.0 0.0 0.00 0.00 0.01 93 1006.3
20260508040154 71 349 3.0 0.0 0.00 0.00 0.01 93 1006.6
20260508040038 71 115 3.0 0.0 0.00 0.00 0.01 93 1006.6
20260508035936 71 16 3.0 0.0 0.00 0.00 0.01 93 1006.6
20260508035900 71 30 4.0 0.0 0.00 0.00 0.01 93 1006.6
20260508035732 71 57 4.0 0.0 0.00 0.00 0.01 93 1006.6
20260508035623 71 34 4.0 0.0 0.00 0.00 0.01 93 1006.6
20260508035524 71 59 4.0 0.0 0.00 0.00 0.01 93 1006.6
20260508035435 72 18 4.0 0.0 0.00 0.00 0.01 93 1006.6
20260508035335 72 38 3.0 0.0 0.00 0.00 0.01 93 1006.6
20260508035237 72 34 3.0 0.0 0.00 0.00 0.01 93 1006.6
20260508035128 72 21 2.0 0.0 0.00 0.00 0.01 93 1006.6
20260508035030 72 355 1.0 0.0 0.00 0.00 0.01 92 1006.6
20260508034922 72 34 1.0 0.0 0.00 0.00 0.01 92 1006.6
20260508034842 72 31 1.0 0.0 0.00 0.00 0.01 92 1006.6
20260508034737 72 36 1.0 0.0 0.00 0.00 0.01 92 1006.6
20260508034639 72 38 1.0 0.0 0.00 0.00 0.01 92 1006.6
20260508034532 72 61 1.0 0.0 0.00 0.00 0.00 92 1007.7
20260508034425 72 64 1.0 0.0 0.00 0.00 0.00 92 1007.7
20260508034327 72 67 1.0 0.0 0.00 0.00 0.00 92 1007.7
20260508034219 72 22 1.0 0.0 0.00 0.00 0.00 92 1007.7
20260508034142 72 44 1.0 0.0 0.00 0.00 0.00 92 1007.7
20260508034037 72 56 1.0 0.0 0.00 0.00 0.00 92 1007.7
20260508033928 72 78 1.0 0.0 0.00 0.00 0.00 91 1007.7
20260508033833 72 44 1.0 0.0 0.00 0.00 0.00 92 1007.7
20260508033739 72 111 1.0 0.0 0.00 0.00 0.00 92 1007.7
20260508033615 72 32 1.0 0.0 0.00 0.00 0.00 92 1007.7
20260508033528 72 30 1.0 0.0 0.00 0.00 0.00 92 1007.7
20260508033430 72 73 0.0 0.0 0.00 0.00 0.00 92 1007.7
20260508033325 72 38 0.0 0.0 0.00 0.00 0.00 92 1007.7
20260508033246 72 38 0.0 0.0 0.00 0.00 0.00 92 1007.7
20260508033141 72 38 0.0 0.0 0.00 0.00 0.00 92 1007.7
20260508033106 72 36 0.0 0.0 0.00 0.00 0.00 91 1007.4
20260508032941 72 38 0.0 0.0 0.00 0.00 0.00 91 1007.4
20260508032844 72 32 0.0 0.0 0.00 0.00 0.00 91 1007.4
20260508032759 72 27 0.0 0.0 0.00 0.00 0.00 91 1007.4
20260508032638 72 51 0.0 0.0 0.00 0.00 0.00 91 1007.4
20260508032533 72 50 0.0 0.0 0.00 0.00 0.00 91 1007.4
20260508032455 72 25 1.0 0.0 0.00 0.00 0.00 91 1007.4
20260508032344 72 25 1.0 0.0 0.00 0.00 0.00 91 1007.4
20260508032227 72 26 1.0 0.0 0.00 0.00 0.00 91 1007.4
20260508032126 72 25 1.0 0.0 0.00 0.00 0.00 91 1007.4
20260508032049 72 15 1.0 0.0 0.00 0.00 0.00 91 1007.4
20260508031921 72 38 1.0 0.0 0.00 0.00 0.00 91 1007.4
20260508031833 72 105 1.0 0.0 0.00 0.00 0.00 91 1007.4
20260508031736 72 72 1.0 0.0 0.00 0.00 0.00 90 1007.4
20260508031647 72 35 1.0 0.0 0.00 0.00 0.00 90 1007.7
20260508031529 72 29 1.0 0.0 0.00 0.00 0.00 90 1007.7
20260508031444 72 90 0.0 0.0 0.00 0.00 0.00 90 1007.7
20260508031327 72 16 0.0 0.0 0.00 0.00 0.00 90 1007.7
20260508031248 72 73 0.0 0.0 0.00 0.00 0.00 90 1007.7
20260508031138 72 128 0.0 0.0 0.00 0.00 0.00 90 1007.7
20260508031028 73 33 0.0 0.0 0.00 0.00 0.00 90 1007.7
20260508030951 73 74 0.0 0.0 0.00 0.00 0.00 90 1007.7
20260508030825 73 16 0.0 0.0 0.00 0.00 0.00 90 1007.7
20260508030730 73 74 0.0 0.0 0.00 0.00 0.00 90 1007.7
20260508030620 73 57 0.0 0.0 0.00 0.00 0.00 90 1007.7
20260508030514 73 23 0.0 0.0 0.00 0.00 0.00 90 1007.7
20260508030422 73 23 1.0 0.0 0.00 0.00 0.00 90 1007.7
20260508030337 73 35 1.0 0.0 0.00 0.00 0.00 90 1007.7
20260508030240 73 36 1.0 0.0 0.00 0.00 0.00 90 1007.7
20260508030154 73 42 1.0 0.0 0.00 0.00 0.00 90 1007.2
20260508030053 73 47 1.0 0.0 0.00 0.00 0.00 90 1007.2
20260508025928 73 30 1.0 0.0 0.00 0.00 0.00 90 1007.2
20260508025828 73 26 1.0 0.0 0.00 0.00 0.00 90 1007.2
20260508025723 73 26 1.0 0.0 0.00 0.00 0.00 90 1007.2
20260508025620 73 40 1.0 0.0 0.00 0.00 0.00 90 1007.2
20260508025521 73 62 1.0 0.0 0.00 0.00 0.00 90 1007.2
20260508025434 73 19 0.0 0.0 0.00 0.00 0.00 90 1007.2
20260508025339 73 13 0.0 0.0 0.00 0.00 0.00 90 1007.2
20260508025251 73 47 0.0 0.0 0.00 0.00 0.00 90 1007.2
20260508025129 73 22 0.0 0.0 0.00 0.00 0.00 90 1007.2
20260508025020 73 15 0.0 0.0 0.00 0.00 0.00 90 1007.2
20260508024931 73 49 0.0 0.0 0.00 0.00 0.00 90 1007.2
20260508024822 73 24 0.0 0.0 0.00 0.00 0.00 90 1007.2
20260508024743 73 51 0.0 0.0 0.00 0.00 0.00 90 1007.2
20260508024634 73 60 0.0 0.0 0.00 0.00 0.00 90 1006.5
20260508024524 73 30 0.0 0.0 0.00 0.00 0.00 90 1006.5
20260508024424 73 29 0.0 0.0 0.00 0.00 0.00 90 1006.5
20260508024339 73 59 0.0 0.0 0.00 0.00 0.00 90 1006.5
20260508024244 73 77 1.0 0.0 0.00 0.00 0.00 90 1006.5
20260508024117 73 57 2.0 0.0 0.00 0.00 0.00 90 1006.5
20260508024031 73 103 2.0 0.0 0.00 0.00 0.00 90 1006.5
20260508023936 73 19 2.0 0.0 0.00 0.00 0.00 90 1006.5
20260508023849 73 25 2.0 0.0 0.00 0.00 0.00 90 1006.5
20260508023731 73 76 2.0 0.0 0.00 0.00 0.00 90 1006.5
20260508023627 73 78 2.0 0.0 0.00 0.00 0.00 90 1006.5
20260508023523 73 71 2.0 0.0 0.00 0.00 0.00 90 1006.5
20260508023422 73 114 2.0 0.0 0.00 0.00 0.00 89 1006.5
20260508023340 73 27 2.0 0.0 0.00 0.00 0.00 90 1006.5
20260508023239 73 37 2.0 0.0 0.00 0.00 0.00 90 1006.5
20260508023134 73 339 1.0 0.0 0.00 0.00 0.00 90 1006.6
20260508023029 73 39 1.0 0.0 0.00 0.00 0.00 90 1006.6
20260508022948 73 56 1.0 0.0 0.00 0.00 0.00 90 1006.6
20260508022822 73 15 2.0 0.0 0.00 0.00 0.00 90 1006.6
20260508022727 73 46 2.0 0.0 0.00 0.00 0.00 90 1006.6
20260508022619 73 19 2.0 0.0 0.00 0.00 0.00 89 1006.6
20260508022544 73 350 2.0 0.0 0.00 0.00 0.00 89 1006.6
20260508022506 73 49 3.0 0.0 0.00 0.00 0.00 89 1006.6
20260508022335 73 41 3.0 0.0 0.00 0.00 0.00 89 1006.6
20260508022227 73 92 4.0 0.0 0.00 0.00 0.00 89 1006.6
20260508022146 73 59 4.0 0.0 0.00 0.00 0.00 89 1006.6
20260508022025 73 69 4.0 0.0 0.00 0.00 0.00 89 1006.6
20260508021949 73 46 4.0 0.0 0.00 0.00 0.00 89 1006.6
20260508021820 73 120 4.0 0.0 0.00 0.00 0.00 89 1006.6
20260508021714 73 44 4.0 0.0 0.00 0.00 0.00 89 1006.6
20260508021642 73 31 4.0 0.0 0.00 0.00 0.00 89 1006.6
20260508021557 73 40 4.0 0.0 0.00 0.00 0.00 89 1006.9
20260508021437 73 56 4.0 0.0 0.00 0.00 0.00 88 1006.9
20260508021331 73 76 4.0 0.0 0.00 0.00 0.00 88 1006.9
20260508021302 73 40 4.0 0.0 0.00 0.00 0.00 88 1006.9
20260508021133 73 57 4.0 0.0 0.00 0.00 0.00 88 1006.9
20260508021023 73 32 4.0 0.0 0.00 0.00 0.00 88 1006.9
20260508020923 73 110 5.0 0.0 0.00 0.00 0.00 88 1006.9
20260508020838 73 41 5.0 0.0 0.00 0.00 0.00 88 1006.9
20260508020740 73 80 5.0 0.0 0.00 0.00 0.00 88 1006.9
20260508020652 73 346 5.0 0.0 0.00 0.00 0.00 88 1006.9
20260508020531 73 51 5.0 0.0 0.00 0.00 0.00 88 1006.9
20260508020429 73 45 5.0 0.0 0.00 0.00 0.00 88 1006.9
20260508020323 73 101 6.0 0.0 0.00 0.00 0.00 88 1006.9
20260508020223 73 69 6.0 0.0 0.00 0.00 0.00 88 1006.9
20260508020120 73 351 6.0 0.0 0.00 0.00 0.00 88 1006.6
20260508020040 73 69 6.0 0.0 0.00 0.00 0.00 88 1006.6
20260508015936 73 28 6.0 0.0 0.00 0.00 0.00 88 1006.6
20260508015828 73 42 5.0 0.0 0.00 0.00 0.00 88 1006.6
20260508015734 73 48 5.0 0.0 0.00 0.00 0.00 87 1006.6
20260508015629 73 67 5.0 0.0 0.00 0.00 0.00 87 1006.6
20260508015522 73 51 5.0 0.0 0.00 0.00 0.00 87 1006.6
20260508015446 73 27 5.0 0.0 0.00 0.00 0.00 87 1006.6
20260508015347 74 46 5.0 0.0 0.00 0.00 0.00 87 1006.6
20260508015238 74 19 5.0 0.0 0.00 0.00 0.00 87 1006.6
20260508015158 74 36 5.0 0.0 0.00 0.00 0.00 87 1006.6
20260508015028 74 345 4.0 0.0 0.00 0.00 0.00 87 1006.6
20260508014939 74 27 4.0 0.0 0.00 0.00 0.00 87 1006.6
20260508014830 74 49 5.0 0.0 0.00 0.00 0.00 87 1006.6
20260508014722 74 79 4.0 0.0 0.00 0.00 0.00 87 1006.6
20260508014625 74 30 5.0 0.0 0.00 0.00 0.00 87 1006.5
20260508014517 74 13 4.0 0.0 0.00 0.00 0.00 87 1006.5
20260508014442 74 346 4.0 0.0 0.00 0.00 0.00 87 1006.5
20260508014403 74 21 4.0 0.0 0.00 0.00 0.00 87 1006.5
20260508014219 74 33 4.0 0.0 0.00 0.00 0.00 87 1006.5
20260508014130 74 20 4.0 0.0 0.00 0.00 0.00 87 1006.5
20260508014034 74 44 3.0 0.0 0.00 0.00 0.00 86 1006.5
20260508013925 74 15 3.0 0.0 0.00 0.00 0.00 86 1006.5
20260508013817 74 65 3.0 0.0 0.00 0.00 0.00 86 1006.5
20260508013722 74 87 3.0 0.0 0.00 0.00 0.00 86 1006.5
20260508013633 74 9 3.0 0.0 0.00 0.00 0.00 86 1006.5
20260508013535 74 138 3.0 0.0 0.00 0.00 0.00 86 1006.5
20260508013433 74 39 4.0 0.0 0.00 0.00 0.00 87 1006.5
20260508013325 74 46 4.0 0.0 0.00 0.00 0.00 87 1006.5
20260508013246 74 57 4.0 0.0 0.00 0.00 0.00 87 1006.5
20260508013149 74 25 4.0 0.0 0.00 0.00 0.00 87 1006.5
20260508013101 74 85 4.0 0.0 0.00 0.00 0.00 87 1006.5
20260508012941 74 24 5.0 0.0 0.00 0.00 0.00 87 1006.5
20260508012831 74 111 5.0 0.0 0.00 0.00 0.00 87 1006.5
20260508012732 74 60 5.0 0.0 0.00 0.00 0.00 87 1006.5
20260508012625 74 34 5.0 0.0 0.00 0.00 0.00 87 1006.5
20260508012530 74 46 5.0 0.0 0.00 0.00 0.00 87 1006.5
20260508012421 74 42 5.0 0.0 0.00 0.00 0.00 86 1006.5
20260508012341 74 55 5.0 0.0 0.00 0.00 0.00 86 1006.5
20260508012232 74 44 5.0 0.0 0.00 0.00 0.00 86 1006.5
20260508012126 74 18 5.0 0.0 0.00 0.00 0.00 86 1006.5
20260508012026 74 13 5.0 0.0 0.00 0.00 0.00 86 1006.5
20260508011924 74 30 5.0 0.0 0.00 0.00 0.00 86 1006.5
20260508011849 74 30 5.0 0.0 0.00 0.00 0.00 86 1006.5
20260508011741 74 108 5.0 0.0 0.00 0.00 0.00 86 1006.5
20260508011642 74 69 5.0 0.0 0.00 0.00 0.00 86 1006.5
20260508011532 74 25 4.0 0.0 0.00 0.00 0.00 86 1006.6
20260508011427 74 38 4.0 0.0 0.00 0.00 0.00 86 1006.6
20260508011329 74 24 4.0 0.0 0.00 0.00 0.00 86 1006.6
20260508011219 74 94 5.0 0.0 0.00 0.00 0.00 86 1006.6
20260508011117 74 94 5.0 0.0 0.00 0.00 0.00 86 1006.6
20260508011022 74 73 5.0 0.0 0.00 0.00 0.00 86 1006.6
20260508010935 74 40 5.0 0.0 0.00 0.00 0.00 86 1006.6
20260508010839 74 42 5.0 0.0 0.00 0.00 0.00 86 1006.6
20260508010733 74 19 5.0 0.0 0.00 0.00 0.00 86 1006.6
20260508010628 74 23 5.0 0.0 0.00 0.00 0.00 86 1006.6
20260508010550 75 65 5.0 0.0 0.00 0.00 0.00 86 1006.6
20260508010424 75 32 6.0 0.0 0.00 0.00 0.00 86 1006.6
20260508010326 75 20 6.0 0.0 0.00 0.00 0.00 86 1006.6
20260508010221 75 35 5.0 0.0 0.00 0.00 0.00 86 1006.6
20260508010143 75 48 5.0 0.0 0.00 0.00 0.00 86 1006.6
20260508010038 75 46 5.0 0.0 0.00 0.00 0.00 86 1005.6
20260508005959 75 44 5.0 0.0 0.00 0.00 0.00 86 1005.6
20260508005831 75 15 6.0 0.0 0.00 0.00 0.00 86 1005.6
20260508005722 75 23 6.0 0.0 0.00 0.00 0.00 86 1005.6
20260508005628 75 37 6.0 0.0 0.00 0.00 0.00 86 1005.6
20260508005540 75 13 6.0 0.0 0.00 0.00 0.00 85 1005.6
20260508005441 75 22 5.0 0.0 0.00 0.00 0.00 85 1005.6
20260508005334 75 336 5.0 0.0 0.00 0.00 0.00 85 1005.6
20260508005228 75 71 5.0 0.0 0.00 0.00 0.00 85 1005.6
20260508005155 75 41 5.0 0.0 0.00 0.00 0.00 85 1005.6
20260508005028 75 45 5.0 0.0 0.00 0.00 0.00 85 1005.6
20260508004933 75 57 5.0 0.0 0.00 0.00 0.00 85 1005.6
20260508004825 75 32 4.0 0.0 0.00 0.00 0.00 85 1005.6
20260508004747 75 29 4.0 0.0 0.00 0.00 0.00 85 1005.6
20260508004637 75 41 4.0 0.0 0.00 0.00 0.00 85 1005.3
20260508004542 75 44 4.0 0.0 0.00 0.00 0.00 85 1005.3
20260508004441 75 32 4.0 0.0 0.00 0.00 0.00 85 1005.3
20260508004405 75 76 3.0 0.0 0.00 0.00 0.00 85 1005.3
20260508004218 75 41 3.0 0.0 0.00 0.00 0.00 84 1005.3
20260508004135 75 53 3.0 0.0 0.00 0.00 0.00 85 1005.3
20260508004035 75 346 3.0 0.0 0.00 0.00 0.00 85 1005.3
20260508003933 75 31 3.0 0.0 0.00 0.00 0.00 84 1005.3
20260508003824 75 105 3.0 0.0 0.00 0.00 0.00 84 1005.3
20260508003728 75 35 3.0 0.0 0.00 0.00 0.00 84 1005.3
20260508003619 75 22 3.0 0.0 0.00 0.00 0.00 84 1005.3
20260508003547 75 26 3.0 0.0 0.00 0.00 0.00 85 1005.3
20260508003458 75 61 3.0 0.0 0.00 0.00 0.00 85 1005.3
20260508003341 75 69 3.0 0.0 0.00 0.00 0.00 85 1005.3
20260508003237 75 11 4.0 0.0 0.00 0.00 0.00 85 1005.3
20260508003128 75 40 4.0 0.0 0.00 0.00 0.00 85 1005.7
20260508003030 75 29 4.0 0.0 0.00 0.00 0.00 85 1005.7
20260508002942 75 78 4.0 0.0 0.00 0.00 0.00 85 1005.7
20260508002821 75 79 4.0 0.0 0.00 0.00 0.00 85 1005.7
20260508002745 75 21 4.0 0.0 0.00 0.00 0.00 85 1005.7
20260508002622 75 46 5.0 0.0 0.00 0.00 0.00 84 1005.7
20260508002543 75 45 5.0 0.0 0.00 0.00 0.00 85 1005.7